GFSSGP_500_rhum_096.txt.gz
RH
12 10 9 8 10 9 10 9 8 10 26 13 11 12 11 19 25 51 5 5 3 3 3 3 4 6 6 5 4 3 2 3 4 5 7 9 9 9 17 16 13 9 7 7 14 17 15 20 20
19 21 22 21 14 14 13 14 20 25 34 13 10 14 13 15 12 11 8 3 2 3 3 4 6 7 6 3 2 2 2 3 3 4 7 10 10 14 16 22 15 12 15 18 20 34 20 25 27
26 26 23 20 16 11 15 23 37 39 35 21 13 16 15 13 13 9 7 6 3 3 3 5 6 7 6 3 3 3 3 3 4 5 8 12 11 9 19 20 23 20 22 22 30 30 35 24 39
32 31 30 24 16 17 20 24 33 42 37 23 22 20 17 14 12 12 8 6 3 4 4 7 7 7 7 4 3 3 4 4 4 5 8 13 14 13 24 23 36 47 53 35 38 50 62 43 44
30 28 28 25 23 23 28 33 42 44 32 23 18 20 19 17 14 12 10 6 4 3 4 8 8 7 4 4 4 4 4 4 3 5 8 15 16 15 22 22 29 32 55 60 55 58 70 69 62
30 30 25 22 26 29 29 32 43 41 32 27 21 20 23 21 15 14 10 8 5 3 4 9 9 6 4 4 5 5 4 4 3 5 10 17 24 28 33 33 40 46 65 78 91 67 72 89 66
42 35 28 25 23 26 30 60 61 52 36 33 28 24 24 25 17 11 15 10 6 4 4 8 8 5 5 5 5 4 4 3 3 5 9 20 31 60 52 63 72 71 88 78 71 90 76 81 89
53 51 39 34 28 23 28 46 63 60 36 29 34 31 30 26 18 13 14 10 6 4 5 8 8 5 4 5 4 4 3 3 3 4 8 19 25 25 26 29 34 62 67 65 98 94 97 91 76
54 52 41 44 49 34 28 32 46 33 24 27 30 34 35 22 15 17 14 12 7 6 5 7 7 5 4 4 4 4 4 4 4 4 7 14 22 32 31 48 66 84 94 96 96 97 96 96 88
46 44 44 53 52 50 31 36 40 36 22 21 21 24 23 20 17 12 13 12 6 8 7 7 8 4 5 4 4 4 5 5 4 4 6 10 20 26 14 17 35 50 77 96 96 96 97 96 95
62 35 50 49 51 51 44 28 27 17 16 14 13 14 12 16 14 12 7 4 8 9 8 7 8 4 4 5 4 4 5 5 4 5 6 9 17 27 19 18 41 58 47 52 83 97 97 97 96
40 53 56 56 63 56 47 34 29 24 15 15 11 10 8 6 9 8 6 5 6 6 7 7 8 5 5 5 5 5 4 4 6 6 8 13 23 33 28 12 34 51 34 48 48 96 97 95 94
23 37 56 61 61 64 53 46 42 34 23 19 15 9 6 6 8 7 4 5 6 6 6 6 8 4 5 5 5 5 4 5 7 11 16 28 30 44 34 18 16 36 29 33 57 86 96 96 96
44 47 45 58 64 65 66 58 52 39 24 21 17 11 7 5 7 6 3 4 5 7 8 8 7 4 4 4 4 4 4 5 7 13 24 37 41 51 33 23 27 21 22 19 83 98 98 95 95
22 35 60 65 65 74 69 63 61 70 29 20 16 12 8 5 5 4 4 4 5 7 8 10 6 6 4 3 3 4 5 5 6 13 29 46 54 35 14 17 19 20 21 26 92 95 94 96 96
23 32 38 45 88 88 75 44 48 55 96 42 17 11 9 6 5 4 3 4 5 5 7 8 9 5 4 4 4 4 6 8 12 26 32 61 57 16 11 16 19 34 29 34 96 95 96 96 96
12 15 27 47 79 96 100 64 53 47 64 90 34 13 12 7 6 4 4 4 4 7 10 6 6 5 4 4 4 5 7 10 21 32 54 70 38 19 21 20 20 16 33 55 97 96 95 97 97
10 6 6 12 41 95 94 70 72 39 42 55 79 14 16 6 5 6 5 5 9 12 8 5 6 6 3 4 4 6 12 20 27 37 64 69 24 23 22 25 26 54 40 49 96 97 93 97 97
5 5 4 4 42 100 93 79 80 47 30 47 59 40 14 21 7 10 10 11 12 12 7 6 6 5 4 5 5 8 16 31 30 37 72 43 25 22 22 41 51 84 49 83 98 97 96 99 98
4 4 5 5 13 99 86 76 92 87 26 31 51 14 12 11 12 13 13 12 14 13 8 5 6 7 4 6 6 10 19 35 29 46 81 33 22 18 25 47 61 100 87 78 96 90 97 97 98
4 3 4 5 33 80 91 75 80 58 64 17 76 16 20 23 9 9 10 10 8 8 6 6 6 7 5 8 8 11 20 30 32 78 65 28 16 18 53 52 51 81 96 87 96 95 97 96 96
18 35 72 5 14 45 100 77 83 96 68 18 15 24 63 72 51 20 8 7 6 6 6 6 6 5 10 8 10 15 20 29 58 74 33 17 15 35 59 52 49 58 93 96 83 88 100 96 92
97 91 93 23 14 88 81 95 70 100 94 100 55 24 61 25 10 10 13 7 6 6 8 8 6 6 11 8 13 15 23 34 72 44 23 13 22 36 54 66 72 70 63 61 97 96 97 97 99
94 100 90 57 88 55 68 96 91 98 99 97 80 70 62 42 16 12 10 8 8 7 7 8 10 8 8 9 17 19 30 68 40 32 16 12 19 26 51 54 64 66 80 82 98 98 97 90 97
100 92 100 90 61 30 85 100 94 99 98 93 89 46 57 36 36 51 31 14 9 8 10 15 9 8 7 16 28 25 56 76 36 21 12 10 12 12 24 27 62 75 84 87 97 90 98 93 98
89 98 68 95 99 87 99 89 93 100 93 99 99 76 32 29 35 42 32 12 11 13 17 8 7 5 6 33 29 31 79 82 31 14 10 10 11 10 9 14 54 65 94 98 96 90 96 97 97
68 94 84 100 94 94 99 100 92 77 99 100 99 74 66 37 14 13 12 13 13 17 8 5 6 9 27 34 37 77 94 44 21 17 17 13 12 15 15 19 51 94 96 96 96 97 97 97 96
87 82 90 97 99 93 100 99 99 100 89 82 64 64 43 14 14 13 14 15 10 11 7 6 11 35 40 48 61 94 38 32 23 24 24 20 20 17 14 25 92 96 97 96 96 96 96 96 97
44 89 78 100 94 100 98 100 100 100 99 99 73 32 15 14 14 11 11 12 6 47 21 19 37 43 52 75 95 74 39 29 27 29 24 20 17 14 26 40 90 97 98 95 97 97 96 97 97
100 72 100 98 99 100 100 100 99 97 100 99 88 36 24 17 16 10 7 5 8 36 31 32 44 53 79 88 97 86 42 41 29 28 22 17 15 17 54 79 96 96 98 96 96 96 97 98 97

GFSSGP_500_rhum_099.txt.gz
RH
12 10 8 7 8 10 11 10 8 8 31 24 29 31 30 23 24 23 7 5 7 4 4 3 4 4 6 6 6 5 4 3 2 2 2 2 3 4 6 9 12 19 14 10 11 11 9 14 19
19 17 16 15 12 12 12 13 18 17 30 22 19 31 28 28 26 16 11 8 5 5 4 4 4 5 6 6 6 5 4 3 3 3 4 3 3 5 7 10 16 22 18 16 25 14 18 26 22
25 22 18 15 13 14 15 19 23 27 30 30 39 35 34 31 26 15 13 10 7 7 6 5 4 5 6 6 6 6 4 3 4 4 4 3 3 4 8 14 21 26 25 35 42 38 24 26 28
29 26 26 24 22 22 20 20 27 41 42 33 38 38 38 33 33 18 15 12 10 10 9 5 4 5 6 6 7 6 4 4 4 4 4 4 3 5 10 19 23 42 50 70 59 51 40 43 39
29 28 25 24 25 25 24 25 31 37 33 32 31 36 38 28 28 23 18 16 13 12 10 7 6 6 7 6 8 7 6 6 5 5 5 4 3 6 12 26 33 47 34 36 57 71 68 55 55
26 33 25 23 24 24 24 28 36 44 38 39 31 28 36 36 26 22 18 17 15 13 12 10 7 7 8 7 7 8 7 6 5 5 4 3 3 5 15 38 56 58 65 62 65 81 88 77 64
41 42 28 26 27 27 27 28 28 36 38 40 40 39 41 37 29 21 19 18 17 18 14 10 7 8 9 7 6 7 8 5 4 4 3 3 3 6 14 22 36 40 73 70 79 89 82 75 68
36 35 27 27 31 32 39 36 31 29 30 38 60 39 42 28 29 25 24 19 16 18 17 12 8 7 9 7 5 6 9 5 4 4 4 3 3 5 12 21 36 44 49 62 86 95 96 96 76
43 30 18 24 41 48 50 48 49 44 36 43 60 44 41 38 30 26 25 20 16 20 20 16 10 7 9 6 6 7 8 4 4 5 4 3 3 4 6 15 26 32 52 68 63 76 97 95 97
28 22 26 46 45 41 52 53 50 49 38 42 42 46 35 32 31 28 22 17 16 18 23 20 12 8 8 7 6 6 6 5 5 6 5 4 5 5 5 10 24 35 29 46 54 81 88 95 97
14 10 24 30 50 51 47 52 51 51 49 42 32 38 53 28 27 22 19 16 14 17 19 21 15 10 9 9 5 5 5 5 7 6 5 5 6 5 6 6 16 28 19 29 55 79 94 96 96
8 10 10 14 28 45 50 50 51 50 45 46 44 33 23 15 13 13 13 11 10 10 15 17 13 12 10 9 6 5 5 7 7 6 6 6 6 4 6 8 14 31 25 25 48 82 95 87 97
6 7 8 8 10 13 30 35 45 47 51 48 46 42 34 22 15 13 11 9 6 8 13 13 12 12 11 10 7 5 6 8 7 6 6 6 7 5 9 14 27 42 22 16 40 52 48 58 95
6 5 5 6 7 15 24 16 49 47 58 56 57 45 32 28 22 19 13 8 6 9 9 8 13 13 11 10 6 5 7 7 6 6 6 6 7 10 11 26 49 41 25 26 32 57 42 81 96
7 6 5 5 5 7 32 16 10 29 77 65 57 48 38 29 25 20 15 9 6 7 8 4 6 10 11 9 5 5 5 6 6 5 6 7 9 18 34 45 42 17 18 24 37 37 54 88 96
8 7 6 5 7 7 22 11 9 32 50 61 69 62 55 59 33 32 18 10 7 5 5 4 5 5 11 9 5 5 4 6 5 5 7 10 12 29 56 57 23 12 17 37 50 33 36 91 95
10 8 7 6 7 10 10 11 14 23 44 51 58 62 57 59 71 54 18 11 6 5 4 4 4 5 8 8 5 4 4 4 6 8 10 14 24 43 61 46 19 20 22 24 46 51 56 95 97
9 8 7 6 4 9 10 9 10 16 34 43 64 68 51 48 77 48 26 9 7 5 4 4 4 7 18 9 5 4 4 4 5 8 14 19 30 59 69 26 22 22 32 31 50 31 44 96 97
6 5 6 4 6 6 10 10 7 7 42 43 68 77 63 47 67 70 33 13 7 6 5 4 5 12 11 5 4 4 4 4 7 16 21 28 37 73 63 22 21 22 38 44 87 53 84 96 96
4 4 5 6 8 5 6 7 6 6 30 50 65 69 58 37 79 43 36 45 6 7 5 6 10 13 8 6 4 4 9 8 9 22 29 41 51 78 45 20 19 25 37 47 99 81 93 98 97
4 6 6 7 6 18 13 7 6 6 18 87 75 86 27 34 36 47 22 40 12 10 11 11 14 14 11 5 6 4 7 8 9 13 27 41 68 78 33 17 22 48 45 47 85 92 95 96 97
13 10 41 59 51 31 50 19 10 10 51 98 90 92 26 38 28 24 25 40 48 18 14 19 16 12 7 5 5 5 7 10 10 17 32 44 78 47 20 16 36 53 53 49 60 86 94 95 97
22 92 86 100 94 100 30 42 7 30 80 91 87 69 70 56 57 16 17 13 10 9 10 10 10 11 6 6 5 6 8 8 12 25 31 65 66 27 25 19 28 48 62 57 73 65 96 96 97
37 100 100 100 93 82 25 40 9 41 86 98 81 65 33 50 74 46 30 55 42 18 8 8 13 6 7 6 6 8 9 8 19 28 40 70 35 18 13 17 20 30 58 66 72 76 85 93 92
99 100 96 100 87 55 43 53 19 77 97 85 96 65 49 38 46 28 50 38 15 10 12 9 7 8 8 9 9 10 7 13 30 28 65 39 24 14 10 14 12 19 27 42 54 76 80 83 93
81 93 88 69 64 65 100 23 64 92 100 95 99 95 82 66 54 54 85 53 32 28 12 12 13 8 13 10 12 12 8 27 30 51 72 30 17 10 10 11 11 12 11 18 70 74 82 92 97
100 55 100 84 100 97 85 70 98 100 99 91 97 100 100 90 56 69 50 55 59 56 66 29 10 14 19 14 19 18 17 33 32 81 54 19 16 18 14 14 17 18 16 28 47 71 97 95 96
85 72 100 94 99 90 89 99 92 99 92 98 92 95 75 89 55 47 46 55 28 64 47 24 19 15 13 38 36 17 36 42 78 92 53 16 20 18 17 23 18 16 19 57 100 94 96 98 96
84 97 93 98 97 100 98 100 99 99 100 95 100 100 96 73 77 76 46 41 25 23 34 34 43 34 29 45 27 41 50 79 98 76 24 26 29 25 21 17 12 15 37 84 98 99 99 97 83
99 100 100 72 90 100 100 100 100 100 99 83 100 100 96 66 35 76 24 29 38 45 38 40 47 24 21 36 50 61 81 98 68 44 31 32 28 22 16 11 22 51 69 96 97 96 96 98 97

GFSSGP_500_rhum_102.txt.gz
RH
22 21 16 12 12 12 8 6 8 8 14 9 14 20 32 36 33 32 25 21 14 8 6 9 7 6 5 4 6 6 5 5 4 3 3 4 4 4 4 4 4 5 12 19 21 15 17 16 11
15 17 21 20 17 15 12 12 18 21 16 10 9 22 33 35 36 33 24 16 13 11 8 7 9 8 6 5 6 6 6 6 5 4 4 4 4 4 4 3 4 7 16 27 28 34 39 34 22
13 14 20 17 18 21 21 16 19 25 25 20 16 18 36 27 30 33 24 16 13 13 11 8 10 10 7 6 7 7 6 6 4 4 4 4 5 5 4 3 4 13 20 32 36 45 38 40 35
16 14 13 9 10 23 24 26 26 34 31 26 22 17 20 24 22 32 29 21 16 15 14 12 12 11 8 8 8 8 6 6 5 6 6 6 5 5 4 4 6 19 27 41 41 42 40 48 47
17 14 12 7 9 20 25 27 29 33 37 39 34 27 24 22 26 31 27 25 22 19 17 14 12 12 11 9 7 9 6 7 8 8 6 5 4 4 3 3 15 31 44 54 48 61 59 49 62
15 18 8 8 15 24 28 30 26 28 36 37 37 36 32 29 26 25 28 30 30 23 21 17 14 15 14 9 7 9 6 6 8 8 6 4 3 4 3 5 10 22 36 40 62 68 75 71 82
16 11 7 8 12 16 33 41 32 29 28 31 38 36 37 33 30 28 27 26 25 23 22 21 19 18 16 10 9 10 6 6 7 8 4 4 4 4 3 3 14 28 37 57 55 59 83 96 96
13 10 5 7 10 12 37 46 44 40 31 30 39 41 41 40 34 28 23 24 28 28 23 22 22 21 20 14 9 10 7 5 6 6 4 4 4 4 3 5 6 14 31 36 62 78 96 77 97
14 9 8 10 16 17 34 42 56 50 42 41 45 42 49 47 32 26 24 23 25 26 29 29 24 22 21 16 11 10 8 5 5 5 4 5 5 4 4 4 5 15 17 49 48 40 50 67 87
13 10 10 11 12 14 23 34 50 52 50 50 47 40 44 48 42 21 22 26 36 30 24 31 30 28 24 19 12 9 9 7 5 5 5 6 6 5 5 5 4 5 10 19 40 56 44 72 96
12 10 10 9 9 10 11 18 44 54 48 54 54 50 46 39 38 28 21 21 21 23 19 21 31 30 26 22 12 10 11 8 5 5 6 7 6 6 6 5 4 4 5 17 24 26 70 88 97
12 10 8 8 7 8 7 9 14 40 50 56 55 55 55 50 45 38 30 22 19 15 14 15 18 24 30 24 13 11 11 10 6 5 7 7 6 7 7 7 5 4 5 14 30 59 82 76 98
14 11 11 10 9 6 6 6 7 10 34 51 58 55 53 51 49 48 45 35 23 15 13 12 16 23 28 24 14 12 12 10 6 6 7 7 6 6 6 7 7 5 8 23 44 44 58 79 83
13 13 12 10 8 7 6 5 6 6 11 22 59 72 61 56 53 50 46 38 34 24 17 16 15 14 21 19 15 14 13 10 6 6 8 6 6 6 6 7 7 8 16 34 48 33 28 45 73
12 13 12 11 10 9 8 7 7 6 6 6 26 64 81 67 66 60 49 43 36 32 24 17 11 12 17 15 15 13 12 9 6 6 6 6 6 6 7 8 11 22 38 49 29 25 37 41 79
16 16 15 14 13 13 10 11 10 6 6 5 6 15 38 68 68 64 57 51 42 35 30 20 10 8 11 12 22 14 13 10 6 5 5 5 6 7 9 12 20 43 56 37 14 21 36 46 42
20 19 17 13 14 12 9 9 10 7 6 5 4 4 8 24 58 70 65 53 41 37 33 28 11 6 8 9 20 14 15 10 6 5 4 4 6 9 11 16 36 64 53 24 21 21 32 55 49
19 17 17 17 14 9 8 7 7 6 5 4 3 3 6 5 17 63 67 63 52 65 48 67 10 6 6 8 18 23 36 16 6 4 4 4 6 11 15 22 44 67 30 24 24 24 31 48 62
15 10 10 16 10 6 6 5 5 5 5 5 6 8 9 10 15 47 67 62 60 62 44 71 11 7 5 6 15 28 57 38 10 4 4 5 7 15 20 28 46 64 22 22 23 33 38 75 67
6 5 5 3 3 4 4 4 4 6 5 6 9 8 10 19 24 39 62 70 56 56 46 45 9 7 5 6 17 29 37 30 20 6 9 8 17 22 26 31 55 48 22 21 28 39 44 93 76
4 3 3 4 3 3 6 7 6 5 6 7 8 7 13 40 37 52 64 54 78 68 61 30 9 7 6 7 17 17 17 40 40 16 6 8 11 20 27 32 69 38 23 25 54 48 45 76 91
4 4 7 6 5 6 18 22 4 6 7 6 7 14 29 64 66 56 61 70 70 65 49 61 19 11 7 10 7 16 24 21 22 9 7 10 12 16 28 51 60 58 34 41 56 56 48 62 84
4 5 7 12 14 15 14 64 4 6 5 7 23 49 65 78 87 68 74 63 73 49 33 27 10 11 11 13 11 18 21 18 12 5 6 9 11 21 39 75 62 50 31 32 46 60 57 44 73
6 8 9 35 62 18 36 75 10 17 13 27 80 73 83 79 74 47 56 24 49 42 25 45 28 12 13 13 13 25 22 7 5 6 7 8 14 23 44 75 56 48 28 19 23 63 64 62 74
12 46 36 69 45 46 95 79 34 28 55 77 94 96 98 99 69 51 28 30 9 12 19 12 25 21 11 9 11 14 6 6 5 7 7 9 22 29 60 62 32 22 17 15 16 28 48 70 71
38 65 77 81 59 65 84 44 42 45 67 69 99 98 99 98 98 76 68 94 41 47 47 47 24 8 13 27 34 12 6 6 8 9 7 19 32 38 69 30 15 10 11 12 14 12 17 31 60
54 72 87 74 56 75 90 100 100 95 100 99 95 98 99 97 97 97 98 78 59 39 30 23 17 23 50 40 23 19 21 15 11 14 12 32 42 75 70 42 13 13 13 15 19 15 15 39 76
48 86 99 62 70 93 100 100 100 100 98 100 98 98 97 96 97 98 96 64 94 94 80 40 24 21 48 73 64 38 43 44 41 40 29 44 64 89 56 24 17 16 17 20 18 15 21 40 48
87 92 100 72 75 100 100 100 100 100 97 98 98 98 98 100 98 87 90 84 65 91 95 93 82 61 70 42 56 58 58 47 60 36 41 59 95 100 45 21 17 19 18 17 13 16 45 92 96
100 83 88 81 97 100 100 100 100 100 100 100 96 94 100 100 93 79 78 64 29 68 91 95 94 73 51 39 71 71 72 50 34 41 75 94 99 56 20 18 20 18 16 17 43 60 75 97 99

GFSSGP_500_rhum_105.txt.gz
RH
14 13 12 11 12 12 15 15 14 12 10 8 8 7 10 16 15 11 14 20 25 28 22 15 12 12 8 6 6 6 7 6 5 5 5 4 4 4 4 5 4 4 4 7 13 26 28 34 35
17 16 12 11 9 8 14 20 19 24 17 18 14 9 8 8 9 10 13 23 25 28 27 17 14 13 14 12 7 6 7 8 6 5 5 5 5 5 5 6 4 4 4 8 17 28 34 35 37
19 16 13 9 6 9 19 25 25 27 21 23 21 19 16 14 13 16 14 12 18 25 25 24 19 15 14 13 11 9 7 8 6 5 6 8 8 7 6 5 4 4 5 13 22 38 35 39 42
12 15 13 8 7 16 25 31 29 30 29 26 24 22 19 19 17 16 14 14 14 14 16 24 23 19 15 14 12 12 8 8 8 5 8 8 8 7 5 4 4 11 14 12 20 34 36 52 58
10 10 11 7 8 19 30 35 32 31 35 33 27 25 24 24 22 21 18 18 18 19 21 24 26 21 18 15 14 13 11 8 9 5 7 8 8 6 5 9 10 14 8 13 27 35 39 56 68
12 11 6 4 8 19 29 40 37 34 32 33 29 26 25 26 28 27 27 26 25 24 24 27 29 29 25 18 16 15 13 9 9 6 5 7 7 6 5 5 5 8 16 25 32 36 43 73 84
12 10 6 6 6 10 23 30 34 44 39 32 31 26 24 26 28 31 32 30 30 29 27 30 31 26 23 22 23 19 16 12 9 8 5 6 6 6 5 4 7 8 36 37 26 46 63 80 78
14 10 4 5 10 9 24 35 38 45 49 46 39 32 28 26 29 30 33 30 30 29 28 28 30 28 24 24 24 22 18 14 10 9 5 4 5 5 5 4 4 7 26 40 39 43 46 55 42
16 9 8 10 13 11 16 18 39 32 29 51 56 48 38 32 29 29 32 30 28 28 29 28 25 26 28 32 30 25 20 16 11 9 6 4 5 5 6 5 5 6 7 9 15 11 15 33 42
17 14 12 14 13 10 11 11 19 17 31 48 58 53 51 45 38 35 33 30 27 29 31 32 30 30 28 35 36 30 22 17 12 9 7 5 5 6 6 6 6 6 5 4 5 9 15 21 20
20 15 16 13 12 11 10 9 10 10 22 46 58 58 55 54 48 50 52 53 35 29 25 24 30 33 29 33 31 34 26 19 12 11 8 6 5 6 6 6 6 7 6 6 4 6 24 48 37
20 18 16 14 13 12 10 9 8 7 13 44 56 60 57 57 53 50 55 61 69 67 42 36 26 24 22 24 27 31 32 23 17 15 11 7 6 7 6 6 7 7 8 8 6 11 43 44 60
22 19 17 16 14 11 11 12 12 10 8 22 45 66 61 58 58 56 55 55 56 58 66 55 38 32 22 23 29 23 32 24 19 17 13 9 6 7 7 6 7 6 8 8 7 8 10 21 62
22 21 17 15 13 12 12 12 10 9 9 8 9 28 66 65 62 62 59 57 55 53 53 51 41 35 29 21 20 18 24 28 20 18 15 12 7 7 6 6 6 7 8 8 8 13 27 37 41
22 21 19 16 13 14 13 11 12 10 9 8 7 6 8 34 56 53 68 65 60 58 59 55 48 35 29 19 17 15 24 25 20 18 16 14 8 7 6 6 6 8 9 11 12 24 49 47 41
26 24 22 19 17 16 16 12 14 14 13 12 11 11 8 6 15 19 33 64 69 66 63 60 51 43 24 17 13 16 24 25 20 16 17 14 9 7 6 5 6 9 12 14 20 48 58 21 21
26 26 24 22 21 20 18 17 13 14 14 12 13 12 10 8 6 8 17 38 65 68 64 60 58 49 34 17 14 14 25 22 32 17 16 12 9 7 5 5 7 11 16 18 34 61 37 27 25
30 28 26 24 24 22 20 20 16 15 18 17 16 14 11 9 7 5 6 28 61 62 64 71 65 51 30 23 26 21 21 21 25 19 18 11 9 6 6 6 8 13 20 20 53 50 31 30 33
32 30 28 26 22 21 19 18 15 14 13 12 11 10 9 7 5 4 3 6 23 47 60 70 71 55 56 55 81 16 14 22 29 24 41 20 12 6 6 6 8 17 23 21 62 27 24 24 26
30 26 24 22 14 9 8 8 8 6 5 4 4 4 3 3 4 4 4 5 8 22 53 72 66 49 61 52 83 26 12 18 40 42 59 50 34 10 13 7 15 23 21 27 63 26 24 24 36
22 15 11 7 6 5 4 5 6 4 3 2 2 3 4 4 4 6 10 8 8 10 25 45 65 58 57 53 52 37 8 20 38 48 69 49 46 42 14 18 14 39 31 42 61 27 29 43 42
13 8 7 5 4 4 4 5 4 3 2 3 5 8 7 6 7 9 21 10 11 14 21 34 70 59 55 39 52 11 8 14 38 71 66 74 73 68 10 29 37 39 34 52 58 26 39 50 52
8 6 5 4 4 4 3 4 2 4 11 44 47 27 13 8 7 8 13 27 26 42 54 54 70 62 39 37 13 12 12 28 59 38 51 52 47 48 7 16 22 25 42 74 64 39 35 48 50
4 4 3 4 6 6 3 10 11 49 69 76 70 22 9 7 7 14 25 54 36 54 64 68 84 61 58 33 31 10 16 25 25 28 22 19 26 21 6 8 16 17 39 74 64 44 30 25 56
4 5 6 7 7 6 16 20 23 49 78 74 51 17 8 8 17 38 55 84 72 65 65 74 84 45 35 54 18 11 9 21 34 20 19 22 17 21 8 8 13 23 33 71 58 40 25 18 40
3 8 10 9 15 29 52 53 73 98 100 69 76 27 16 17 66 99 97 99 98 85 63 82 55 18 22 16 13 14 12 17 25 53 28 13 6 6 7 8 14 27 39 64 35 28 15 16 15
12 16 60 35 51 42 54 75 99 100 72 68 92 58 49 80 100 98 100 97 90 75 68 36 69 22 12 11 10 10 14 25 48 67 70 6 6 7 8 12 24 30 55 40 14 11 13 12 14
24 86 76 96 80 47 57 100 100 100 100 83 81 94 90 96 96 99 99 100 98 96 58 21 45 52 33 26 32 58 49 52 91 69 43 20 27 17 13 22 35 49 75 46 20 15 15 14 15
71 81 80 98 95 82 91 97 100 100 100 100 98 100 99 97 98 98 98 96 97 98 86 64 59 30 42 46 24 54 72 97 93 73 60 60 66 39 32 37 48 70 70 40 18 17 15 13 15
80 79 100 94 88 63 94 99 100 100 100 100 100 89 97 100 98 99 99 99 92 86 93 99 85 43 46 58 74 53 97 96 96 92 94 75 71 38 35 47 70 81 44 21 18 16 14 12 15

GFSSGP_500_rhum_108.txt.gz
RH
16 16 15 15 12 10 12 17 22 20 17 15 11 8 8 8 8 9 8 6 6 12 18 28 26 22 14 13 15 10 7 5 6 7 5 5 4 5 6 6 6 6 4 4 7 12 26 33 32
10 11 14 14 11 10 13 21 27 24 20 18 16 13 12 10 10 10 9 9 10 10 16 28 30 26 19 15 14 12 10 8 5 7 6 5 5 7 9 8 7 5 4 7 11 16 30 32 38
8 8 8 9 8 10 18 26 28 27 24 24 21 17 15 15 14 14 15 15 14 14 15 18 23 27 19 16 15 14 11 12 8 6 7 5 7 9 9 8 7 5 10 16 9 16 32 37 44
14 14 11 9 8 12 21 31 30 32 29 27 24 24 21 19 18 17 17 17 17 16 16 17 18 21 27 24 21 18 13 12 12 7 8 6 6 8 9 9 7 20 6 7 12 22 33 36 48
19 15 10 7 9 12 22 33 28 30 32 30 25 25 24 24 22 20 20 20 20 20 18 20 21 24 31 33 28 29 22 15 14 13 7 8 6 7 8 8 16 11 8 10 21 24 31 37 69
18 19 12 8 8 13 18 23 20 29 36 34 28 27 28 28 28 27 26 26 25 24 24 26 27 30 34 37 33 26 23 19 16 16 11 8 6 6 6 8 8 16 18 24 37 27 34 51 51
21 18 14 9 8 14 20 18 19 27 33 38 35 30 30 29 29 30 30 30 31 30 31 32 31 34 37 36 35 30 25 23 20 19 16 9 8 5 5 6 7 11 24 21 24 24 17 22 28
23 20 14 13 14 16 24 20 17 17 26 26 36 22 35 36 33 31 32 31 30 32 32 34 34 35 36 36 36 35 34 29 24 21 19 10 10 6 4 5 6 6 6 5 7 6 4 5 11
26 23 19 20 21 18 17 15 15 13 10 12 28 17 26 40 42 41 38 35 35 34 31 30 30 32 36 38 36 38 38 36 28 24 20 15 10 8 4 5 6 6 6 5 5 5 5 4 6
27 24 24 24 23 19 17 16 19 14 12 13 26 23 24 24 40 44 47 42 40 42 36 33 29 28 33 37 34 41 42 39 31 26 21 16 10 9 5 5 6 6 6 6 6 7 6 6 7
37 31 32 27 24 21 18 16 14 12 12 14 16 31 22 16 32 39 45 53 58 56 58 54 58 45 34 32 37 43 39 40 37 33 24 16 12 10 6 5 6 6 7 7 7 8 9 6 14
46 43 38 31 24 20 18 15 13 12 11 15 12 22 22 18 22 38 38 52 63 64 66 61 64 73 67 50 47 36 40 45 44 39 32 21 15 13 8 6 6 6 6 7 8 8 9 7 6
52 43 34 29 23 20 19 18 16 13 11 11 11 12 17 29 36 39 44 46 59 70 82 78 70 65 69 70 51 46 49 36 31 32 38 25 18 14 12 6 7 7 8 8 8 9 10 9 7
56 50 42 32 26 23 22 18 16 14 11 11 10 9 9 11 36 35 49 52 58 64 68 63 63 61 61 59 54 54 51 27 23 28 38 30 24 18 14 9 7 7 8 7 9 10 12 17 28
68 65 55 39 32 24 25 25 16 15 14 12 10 10 9 8 8 19 46 60 59 52 66 68 66 63 65 69 72 76 50 31 24 28 34 37 26 24 18 12 8 8 7 7 8 13 13 26 35
61 58 46 32 27 24 24 22 19 16 16 14 14 13 12 10 10 8 8 8 14 20 15 32 60 65 63 64 73 78 56 44 32 33 38 41 28 28 22 16 10 8 6 5 9 15 13 27 51
61 57 50 39 31 29 28 26 24 22 20 19 18 16 15 14 13 12 10 7 7 7 8 8 14 37 64 65 65 70 65 53 45 32 35 32 27 28 27 20 13 8 5 5 11 16 14 42 55
67 61 58 53 40 31 30 32 30 24 23 22 20 20 19 18 18 17 15 11 7 7 8 6 8 9 33 64 65 71 71 57 49 43 36 38 31 28 27 24 13 8 5 5 14 18 17 49 58
68 65 62 57 50 45 35 32 29 26 22 19 17 14 11 10 9 7 8 11 11 8 6 6 7 8 20 28 45 63 59 55 57 60 52 36 41 48 27 23 12 9 5 6 16 21 19 47 50
67 59 52 46 38 35 33 33 27 22 16 14 10 8 6 7 6 5 5 4 6 6 6 7 5 5 14 40 19 59 49 51 94 53 41 40 37 48 30 22 18 12 11 10 13 34 23 51 45
48 46 45 45 39 29 22 23 19 14 12 6 5 5 6 5 4 3 3 3 3 4 5 5 5 4 4 25 43 50 59 54 82 50 30 42 34 32 45 39 46 46 51 28 27 37 37 54 54
50 42 40 35 26 21 14 15 19 10 7 6 5 4 3 2 2 2 2 2 2 3 4 4 3 4 4 14 30 65 65 55 48 93 33 37 40 36 53 64 56 56 64 27 42 42 44 60 59
47 36 27 21 13 10 14 10 9 6 6 4 3 3 8 5 3 3 3 3 4 6 8 6 3 3 4 6 18 71 59 50 30 91 28 30 43 59 88 58 66 94 36 40 34 30 42 65 67
30 22 15 11 9 8 7 6 7 5 4 4 20 54 53 37 21 16 8 5 6 7 10 8 6 4 5 16 49 71 56 42 51 48 19 26 45 48 88 76 78 63 25 23 28 28 37 69 68
17 13 10 9 6 5 5 5 6 5 13 60 62 92 57 44 14 23 9 7 7 7 9 12 11 12 17 54 77 67 37 31 29 26 27 32 49 72 70 67 43 46 13 14 28 32 40 70 69
10 8 6 8 6 8 11 11 14 40 69 68 66 92 61 30 11 10 15 8 9 8 15 20 23 29 60 87 81 67 41 46 26 28 32 37 64 53 48 32 42 40 13 10 21 33 42 68 56
6 8 10 9 10 12 19 53 48 86 100 87 73 74 78 80 13 11 17 31 46 57 56 74 61 71 82 84 83 60 83 72 32 28 29 40 42 37 34 29 8 11 8 9 19 33 50 70 37
4 10 22 44 38 58 58 56 71 100 100 100 86 84 98 92 89 70 97 99 100 97 96 98 98 82 93 99 89 79 86 67 32 18 20 36 38 52 77 38 8 9 13 16 31 36 66 63 27
21 59 48 68 75 96 59 69 87 90 92 100 98 100 100 97 100 98 98 98 95 100 100 98 97 92 85 82 74 64 52 51 33 25 24 23 44 84 96 64 27 31 29 35 32 35 64 57 35
94 97 89 100 100 99 81 69 87 98 98 100 97 100 100 100 98 100 99 99 99 100 99 97 99 88 84 80 70 45 48 36 16 25 44 70 79 95 84 71 68 46 39 52 44 62 83 73 22

GFSSGP_500_rhum_111.txt.gz
RH
8 8 8 10 12 13 13 21 22 20 18 18 17 16 14 9 8 8 9 10 10 10 10 11 15 20 18 14 12 12 10 9 7 5 5 6 5 6 6 8 8 7 6 5 12 9 14 22 23
10 9 8 8 8 10 15 23 24 23 21 20 20 19 16 12 13 11 10 10 10 11 13 14 20 27 26 19 16 13 13 12 9 9 7 6 6 5 7 9 8 6 6 9 12 9 14 26 22
13 13 10 10 10 11 12 20 20 22 22 20 22 22 22 18 16 14 14 13 13 15 16 17 23 24 24 25 20 15 13 17 13 11 11 6 7 6 7 9 9 7 14 10 6 11 21 24 21
20 17 13 12 14 12 18 18 18 21 20 21 18 18 24 22 22 20 18 17 18 18 18 19 21 22 23 25 27 28 22 18 18 16 13 11 7 7 6 8 8 10 12 11 17 20 21 22 34
20 19 15 13 16 20 18 15 12 14 15 16 15 23 25 24 25 23 21 20 19 19 20 20 22 23 24 28 31 34 33 28 25 20 18 14 12 7 7 6 7 7 10 18 23 29 25 29 36
20 20 15 16 19 23 21 17 14 12 12 13 10 18 24 23 27 29 29 27 24 22 24 26 27 27 28 31 35 38 37 34 26 22 21 20 18 12 8 6 6 6 7 19 21 21 22 12 13
26 23 20 19 19 24 26 20 16 14 12 13 8 6 19 20 21 28 31 32 31 29 28 30 32 32 33 36 37 38 36 34 32 25 23 23 22 18 9 7 5 6 5 9 7 5 7 5 5
27 26 22 24 26 28 30 24 19 15 13 11 10 8 11 15 16 21 30 32 35 35 35 36 36 37 38 38 38 38 37 36 35 31 26 26 24 21 12 10 5 5 6 6 6 5 5 5 5
28 24 22 27 34 32 29 27 24 19 15 14 14 11 11 12 15 19 22 29 38 38 37 36 37 36 36 37 36 36 41 42 40 38 35 28 24 20 16 10 7 5 6 6 6 6 6 7 8
34 27 28 32 34 34 34 29 26 22 19 17 17 18 14 12 17 24 23 29 38 46 48 47 39 42 40 37 40 39 39 44 46 43 38 32 27 22 16 12 9 5 5 6 6 7 7 8 9
43 41 49 42 47 45 42 37 31 25 21 20 17 20 18 14 15 36 38 36 38 48 52 51 49 48 53 52 54 58 50 44 47 49 45 44 38 28 19 14 12 7 6 7 7 7 8 8 9
43 48 44 47 51 49 45 42 34 31 23 20 16 14 15 13 13 22 48 45 41 47 52 56 55 60 63 61 62 73 69 56 58 62 47 41 43 36 25 19 14 10 6 7 7 7 8 8 10
42 44 43 44 52 46 43 38 32 26 19 17 14 13 12 12 12 10 20 42 49 52 54 62 62 62 66 70 68 69 71 68 64 66 46 41 39 46 30 22 18 15 8 7 7 8 9 9 12
44 45 55 55 57 55 50 48 46 32 24 19 17 14 12 11 11 11 11 24 31 47 59 59 59 54 54 60 60 61 63 72 67 63 40 34 44 47 36 25 22 18 12 7 8 8 8 9 14
57 52 58 60 54 57 55 52 52 47 29 19 14 12 12 11 10 10 13 10 22 38 60 50 62 60 56 49 63 56 66 73 83 84 54 25 29 35 45 32 26 22 18 10 8 7 6 10 16
55 58 60 60 57 55 53 42 41 34 27 22 17 15 14 13 12 10 9 9 9 9 21 37 53 46 39 70 94 51 61 68 77 84 85 56 25 29 39 41 32 27 23 15 9 6 5 10 15
61 60 60 66 66 65 60 46 44 37 32 28 23 20 17 16 15 15 14 12 10 10 10 10 14 15 19 26 31 37 54 56 63 71 85 76 53 37 39 43 35 32 28 19 12 6 5 14 16
62 62 65 68 68 65 60 48 52 48 38 33 30 25 24 23 21 18 16 15 14 12 11 11 11 11 9 10 15 14 10 35 56 68 77 79 68 47 43 42 34 31 29 24 15 7 6 15 21
58 61 64 80 84 70 65 38 53 54 51 46 33 30 27 25 23 21 20 19 18 18 17 16 15 14 12 10 8 8 7 17 53 68 95 93 74 66 51 46 37 31 29 29 22 8 8 15 28
67 65 70 79 78 67 58 38 44 45 44 40 36 31 25 20 15 13 11 9 8 8 8 8 10 13 13 12 9 8 7 8 32 65 74 88 75 65 66 58 44 46 36 28 23 12 13 14 32
95 93 96 77 70 62 57 47 47 47 45 35 26 20 17 17 17 14 10 8 6 6 5 5 4 6 9 10 10 9 8 6 7 21 66 78 83 71 94 62 44 42 46 31 25 36 62 32 39
94 100 89 79 68 69 55 53 46 47 41 32 19 15 14 12 10 10 8 6 4 3 3 2 3 4 5 6 8 8 7 7 5 12 50 71 72 92 78 56 46 48 44 41 38 60 69 43 51
96 98 93 94 99 89 70 59 37 33 25 19 15 12 10 8 6 5 4 3 3 3 2 2 3 3 4 6 6 7 5 6 4 12 47 78 72 83 79 46 46 48 46 55 60 82 53 45 47
99 98 99 98 100 88 43 23 29 21 15 12 12 8 5 4 4 13 12 18 17 16 8 4 3 4 5 6 6 5 5 5 5 10 58 66 45 72 80 61 39 48 42 67 64 96 39 44 41
97 97 98 78 33 29 20 16 12 12 7 6 4 4 4 15 37 42 28 12 16 26 18 11 4 4 6 6 7 6 4 4 5 16 49 63 46 43 79 42 43 50 74 96 88 89 30 27 36
96 87 44 22 18 14 9 7 6 5 5 19 24 41 33 44 39 56 85 19 20 24 37 16 17 6 8 8 8 7 6 10 12 47 48 60 39 61 40 35 53 78 85 97 96 67 21 12 33
55 22 16 10 7 6 6 7 5 7 64 84 72 61 53 52 64 84 84 28 18 42 58 48 24 28 20 11 14 11 12 35 42 61 64 44 42 43 32 33 48 66 88 96 67 74 20 9 25
10 7 6 6 9 13 30 25 24 60 90 94 70 72 84 71 80 78 77 35 42 51 54 68 53 58 44 44 50 36 46 69 73 72 34 30 37 33 30 28 32 73 90 53 44 12 8 10 28
4 7 16 20 38 77 74 75 52 85 97 97 63 75 98 88 96 98 99 98 98 99 95 99 74 72 71 65 68 68 73 77 89 72 56 61 32 29 34 40 52 71 78 53 29 8 12 21 39
27 59 52 62 93 100 99 87 94 100 94 74 83 87 98 94 100 100 100 99 100 100 100 100 98 100 99 100 98 92 96 84 83 86 99 95 44 39 42 46 51 57 60 93 26 21 21 56 62

GFSSGP_500_rhum_114.txt.gz
RH
11 9 8 8 8 9 13 20 20 16 13 13 12 13 16 16 14 9 9 8 8 10 12 15 18 16 16 16 17 17 15 12 11 10 7 5 4 6 5 6 9 10 7 5 11 10 9 13 20
15 11 10 10 9 10 13 16 14 11 11 12 10 11 18 15 16 13 10 9 11 14 17 19 19 17 19 22 18 17 17 15 13 14 11 8 6 5 6 6 8 9 8 13 12 6 13 18 19
16 14 12 12 14 14 17 15 13 11 11 11 11 14 18 17 18 19 16 15 13 13 16 20 22 20 22 22 23 20 20 20 22 20 16 15 10 6 6 6 7 8 8 14 10 16 19 20 19
20 17 16 16 18 20 23 18 14 11 9 10 12 15 15 17 18 21 22 19 18 17 21 22 23 23 24 26 27 26 25 26 26 25 21 20 17 12 6 7 6 7 7 9 17 23 24 24 24
23 21 19 20 19 23 24 22 18 12 10 8 13 15 15 12 17 24 25 23 22 21 21 21 24 23 24 26 28 28 29 32 32 28 27 23 20 18 14 8 7 6 5 7 15 24 22 26 9
24 25 22 22 22 24 30 27 24 17 13 11 8 10 16 10 13 19 25 26 26 24 23 22 22 23 26 29 30 30 32 35 34 33 29 26 23 22 20 14 9 6 5 5 11 18 10 7 5
24 23 24 26 28 27 34 30 28 24 19 15 11 10 12 10 11 12 19 25 25 27 29 30 30 28 29 30 32 33 36 37 37 35 34 31 27 24 23 19 11 9 5 5 6 7 5 6 5
33 29 25 27 31 29 33 31 30 29 26 21 17 13 13 12 12 13 13 19 24 27 26 31 33 33 33 35 35 35 36 38 37 36 34 34 31 27 26 22 17 11 6 5 5 6 6 6 6
38 32 30 32 34 35 38 37 36 32 30 27 22 18 15 16 14 16 18 22 24 29 32 33 35 37 37 37 35 37 37 36 38 37 36 37 35 36 30 22 18 12 12 7 6 6 6 7 7
45 41 40 40 44 41 39 46 51 43 38 32 27 23 19 16 17 17 15 19 24 32 38 39 39 40 40 39 37 38 39 43 50 38 38 42 41 38 36 27 21 19 18 15 7 6 6 7 8
53 50 50 46 45 43 42 42 42 45 45 38 34 26 24 20 16 19 20 15 21 25 37 46 45 45 46 51 44 43 50 52 63 53 42 47 53 44 36 35 33 27 19 14 13 9 7 7 8
58 53 48 47 46 44 42 36 48 44 46 41 37 33 26 22 17 15 20 26 31 41 40 47 51 50 50 46 47 49 61 62 63 70 52 48 44 41 39 35 32 27 27 15 9 9 6 7 8
54 47 39 38 45 42 39 41 48 49 44 37 34 28 23 20 18 15 15 23 34 39 39 50 55 54 54 54 51 54 64 66 68 70 68 73 55 34 35 34 33 30 27 23 16 10 7 6 8
45 45 42 31 38 40 44 46 44 52 52 47 41 35 26 21 17 15 13 12 16 30 34 41 53 60 56 58 66 66 63 71 75 66 69 72 68 48 34 34 38 31 28 23 20 12 9 7 7
47 42 40 43 38 40 50 52 49 54 57 56 52 47 41 30 22 16 13 12 11 14 31 35 53 61 61 65 50 49 61 59 64 61 61 69 73 82 60 35 28 32 28 26 21 18 11 8 8
28 29 35 34 47 37 44 45 38 45 47 50 45 41 33 24 20 15 13 12 10 10 13 21 38 48 52 51 59 57 53 52 53 58 62 66 76 89 83 66 33 34 39 32 27 22 18 12 6
22 24 31 45 44 53 50 50 50 51 53 55 53 45 35 25 20 18 14 13 11 11 10 10 11 16 28 45 58 54 53 52 58 84 57 58 65 77 90 79 63 37 40 46 39 25 23 16 8
43 37 49 42 46 52 47 49 55 46 57 59 56 54 47 39 28 22 20 16 14 13 12 11 10 15 10 12 25 44 51 51 50 47 47 45 61 67 77 79 79 59 42 49 45 28 25 21 10
51 54 41 40 38 44 48 38 63 56 53 59 65 61 53 46 38 30 26 22 20 19 18 17 14 13 12 11 11 12 12 25 40 34 31 33 46 67 88 85 70 69 50 45 45 29 27 27 18
52 55 61 58 49 37 40 26 70 61 64 60 56 55 52 51 48 44 35 29 27 24 23 22 19 17 16 15 14 12 11 11 14 12 10 16 28 58 84 97 85 69 67 46 46 35 29 25 22
77 78 85 84 78 70 63 29 71 51 56 61 58 52 47 45 44 41 35 30 26 21 16 14 12 12 13 16 20 18 15 14 12 10 8 8 15 30 64 77 85 79 77 69 50 48 39 30 25
88 96 100 100 95 89 81 49 58 71 66 59 65 56 53 50 44 36 28 21 18 16 13 11 9 8 7 6 18 32 37 16 10 10 9 10 18 15 35 74 86 84 80 74 60 47 47 38 23
84 77 82 89 95 91 73 88 39 64 65 64 62 58 38 31 25 21 18 17 15 13 11 9 7 6 4 4 5 6 6 7 6 8 8 7 8 9 9 57 85 79 73 82 57 48 47 38 34
98 98 98 99 93 85 80 96 61 70 60 40 28 25 24 22 20 16 13 11 8 6 5 5 4 4 3 3 3 3 4 5 4 4 8 8 8 6 5 29 71 73 68 84 49 40 45 42 52
99 93 92 90 93 83 72 76 74 61 32 30 26 20 15 12 8 6 5 4 5 22 19 11 13 17 21 11 6 4 4 4 4 4 6 8 8 6 5 21 63 67 65 88 51 46 52 45 66
94 97 100 95 99 94 74 48 23 22 19 18 9 5 4 4 12 16 12 31 43 26 8 10 8 14 20 15 7 6 6 5 4 5 6 8 8 6 5 53 68 64 52 85 51 48 74 57 91
97 99 94 77 50 33 25 14 12 9 6 5 5 32 49 38 47 37 37 58 40 11 12 23 41 40 26 28 10 5 10 7 5 6 6 7 6 7 15 62 69 64 49 63 54 84 84 93 97
91 75 44 21 11 9 24 14 16 10 10 16 72 58 51 69 53 40 59 75 45 36 33 35 57 70 49 27 9 14 18 12 11 7 7 7 7 20 53 67 61 61 49 70 50 88 97 97 94
20 7 6 6 10 18 60 69 94 54 56 74 72 77 84 85 66 93 92 100 90 80 81 91 99 82 92 51 28 35 33 30 34 20 26 33 38 70 65 61 57 51 47 41 38 88 96 96 69
7 10 13 23 85 68 99 64 79 80 87 96 100 95 91 85 73 89 100 93 96 99 99 100 99 100 98 94 76 80 60 55 86 100 65 71 78 78 69 62 40 36 31 32 43 86 91 80 77

GFSSGP_500_rhum_117.txt.gz
RH
11 12 13 11 10 9 10 26 16 15 14 10 12 11 12 14 14 14 11 11 9 8 9 10 11 12 11 12 14 16 16 16 16 14 12 11 8 5 4 5 6 8 9 8 13 12 6 14 18
14 16 15 13 12 14 33 42 12 11 7 11 11 12 13 12 12 15 13 14 11 10 11 14 13 16 17 17 17 17 16 17 18 18 19 15 14 10 6 4 6 10 8 8 13 10 14 17 19
15 18 16 15 15 17 32 47 16 11 10 9 11 11 12 9 10 14 15 17 15 13 13 16 18 18 18 18 18 20 20 20 21 21 22 22 18 17 10 6 5 6 8 8 9 12 19 22 22
17 19 20 18 20 22 25 26 21 18 14 11 10 12 10 11 10 16 16 18 20 19 17 16 16 17 20 24 21 21 22 24 25 27 24 24 25 21 18 12 7 7 7 8 8 11 18 21 27
17 18 18 19 22 24 25 27 19 24 22 16 11 13 12 7 12 16 19 20 22 22 21 21 20 20 21 21 20 21 25 26 27 30 30 28 25 26 22 18 13 7 7 7 7 8 16 17 16
23 21 18 20 25 28 28 30 23 28 27 23 17 14 11 7 7 12 13 15 19 23 23 22 22 22 22 24 25 26 27 28 28 30 32 32 30 27 27 22 19 13 8 6 5 7 11 9 7
33 28 26 26 27 31 34 32 30 33 30 28 23 20 17 12 8 8 9 13 17 21 23 26 28 28 28 28 28 28 29 31 31 30 29 30 31 31 28 26 22 19 11 8 5 5 7 6 5
47 39 32 34 36 37 38 35 34 33 33 29 29 26 22 19 16 15 10 12 16 18 19 24 27 31 32 31 31 32 32 31 32 33 32 30 26 28 29 29 26 23 17 11 6 5 6 6 6
51 50 45 44 41 39 43 37 39 34 36 35 34 32 29 24 21 17 14 13 14 17 18 21 28 31 34 35 35 35 35 33 33 33 40 38 30 29 30 32 35 26 26 13 9 6 6 6 6
56 56 60 56 48 50 46 47 50 46 43 46 44 42 36 30 26 21 18 16 16 22 24 24 32 39 38 40 40 39 38 38 38 38 44 50 35 34 35 39 36 36 34 51 33 13 6 6 6
61 59 78 65 56 57 54 52 52 52 46 50 50 44 45 41 34 26 21 19 19 20 27 35 40 43 44 46 46 43 44 49 44 44 49 64 51 39 38 42 46 45 40 37 33 18 10 6 7
50 64 65 67 63 61 61 55 45 54 51 53 48 45 45 41 38 32 25 23 22 27 29 38 43 51 51 50 49 55 54 55 51 47 59 64 70 51 43 37 33 37 34 30 30 27 12 12 8
41 49 60 58 55 50 45 41 37 43 57 56 52 52 48 41 36 33 29 26 24 22 23 29 32 39 55 54 48 53 54 56 59 53 63 64 68 67 66 42 31 32 34 32 32 31 30 11 8
37 36 36 36 46 47 45 42 53 53 47 53 50 52 50 44 37 31 26 22 19 20 20 23 29 44 46 54 58 61 58 57 56 57 67 73 72 74 74 63 38 31 27 28 30 31 32 24 10
14 12 11 18 20 22 23 28 40 29 34 59 61 58 55 56 50 43 34 31 24 17 15 14 20 27 42 72 72 63 70 71 62 65 67 67 75 72 82 80 74 61 47 23 22 24 27 24 24
15 14 16 26 12 14 15 26 50 21 20 51 51 50 47 45 43 41 41 38 30 24 16 14 13 15 20 42 56 66 83 76 63 65 66 60 67 69 77 83 82 85 75 55 23 26 29 28 24
25 27 34 29 13 13 16 23 43 38 32 34 62 62 59 54 51 48 46 39 29 24 20 14 10 11 17 35 55 66 71 80 72 60 60 57 65 67 71 79 76 80 85 84 57 34 31 32 28
45 39 39 32 47 35 24 32 48 53 52 45 62 67 64 61 57 52 52 42 34 20 18 15 14 12 10 13 37 57 68 58 77 59 44 67 59 76 94 86 79 81 83 81 93 68 44 43 38
36 56 52 50 53 48 42 43 52 55 53 45 52 58 71 72 70 68 61 52 43 30 19 15 15 13 12 10 10 16 30 50 44 52 31 44 60 63 74 70 78 83 94 84 77 76 67 41 42
60 68 69 54 45 40 37 26 36 57 65 61 51 54 54 58 59 61 60 59 56 47 36 26 20 17 14 14 12 12 10 14 16 38 33 29 33 27 50 74 62 74 94 100 92 81 70 54 43
63 68 62 58 52 52 49 33 70 74 68 68 56 58 64 69 65 59 58 56 51 50 49 39 30 25 22 20 18 18 17 14 12 12 12 11 11 10 12 30 55 46 89 89 93 94 79 70 59
82 79 62 59 68 68 78 73 62 91 92 86 52 39 55 60 61 63 64 61 52 48 45 44 41 36 29 26 24 23 21 19 17 15 12 12 11 12 11 12 27 24 73 89 93 100 98 87 94
74 75 78 86 82 85 48 100 57 90 100 100 50 51 69 65 64 64 66 76 58 52 47 44 37 30 26 22 17 15 15 18 18 24 26 17 15 38 12 8 10 13 44 83 95 98 96 92 88
88 87 84 98 100 91 69 98 54 90 67 100 80 66 61 58 47 38 34 30 40 52 38 21 20 18 16 15 14 14 17 14 11 10 10 22 33 22 12 9 7 11 20 58 86 96 98 85 87
85 99 91 91 100 80 92 100 98 63 58 63 36 26 35 29 29 24 19 14 10 8 7 7 7 6 5 5 4 4 5 7 11 9 8 12 21 36 16 8 6 8 11 36 74 84 94 80 87
98 91 95 95 100 100 100 83 100 59 49 42 30 21 15 11 7 5 4 4 4 3 3 4 8 7 7 6 6 7 6 4 4 4 4 5 19 14 27 9 7 6 14 16 57 76 86 72 70
94 93 100 97 97 95 81 73 82 52 26 16 10 6 4 4 5 7 11 15 22 18 14 15 17 9 12 12 14 20 20 19 18 9 5 5 8 7 22 14 8 8 10 10 50 70 78 77 66
92 100 98 81 66 60 75 100 100 50 51 29 29 17 18 51 55 44 48 46 39 36 58 24 15 17 26 40 50 36 27 23 21 16 16 8 6 20 11 31 7 9 9 10 34 51 71 73 56
64 46 32 16 11 24 86 100 100 100 98 87 70 69 82 78 66 72 73 67 82 82 93 68 58 31 47 60 77 45 7 20 16 8 17 31 26 44 45 43 41 8 8 7 31 45 76 76 69
7 6 7 6 16 83 100 98 76 95 100 100 97 100 94 97 90 85 93 90 93 99 93 79 79 85 94 98 99 56 15 7 10 24 87 80 80 84 94 63 76 14 7 11 50 78 72 82 87

GFSSGP_500_rhum_123.txt.gz
RH
12 11 10 10 10 13 15 27 23 26 20 21 21 19 18 17 16 13 10 14 16 14 19 13 10 8 9 10 11 13 11 13 16 16 16 17 17 16 14 13 10 8 4 5 7 8 6 6 9
15 12 11 12 15 17 27 16 23 46 44 31 18 22 18 14 13 12 13 18 19 16 15 13 10 10 10 11 11 11 10 12 15 16 17 18 20 21 19 17 16 14 9 6 10 9 7 6 8
20 15 13 14 17 21 33 18 15 36 46 38 24 18 19 14 12 10 16 16 12 18 18 16 14 12 12 12 12 12 13 14 16 18 21 23 23 23 24 24 21 18 15 10 8 7 8 11 10
27 22 17 14 17 24 28 30 25 20 26 21 20 26 21 18 18 14 11 18 14 15 20 19 19 16 16 16 16 15 16 16 18 20 22 22 21 22 24 25 26 23 21 18 11 6 8 11 11
32 30 27 21 18 21 24 46 63 40 27 19 19 26 24 17 13 15 16 15 12 14 20 22 21 21 20 20 19 19 20 20 21 22 23 21 21 21 20 19 21 26 24 22 18 10 6 9 9
35 32 33 32 26 23 22 30 57 38 20 18 22 33 21 19 18 17 17 20 14 14 16 22 22 21 22 22 22 22 22 21 22 24 24 23 23 21 20 20 21 23 29 27 25 19 10 6 8
39 37 41 41 40 37 40 33 28 26 23 21 26 33 29 23 22 21 19 22 24 14 15 20 21 21 21 23 24 25 27 26 27 28 28 26 25 24 24 22 21 22 22 34 36 25 23 11 6
47 41 48 48 46 48 52 46 31 31 31 32 38 42 36 31 25 27 28 26 32 22 20 20 24 22 22 24 24 24 28 31 32 32 30 30 27 26 28 25 25 27 24 27 45 29 25 22 6
49 43 48 53 55 47 46 48 47 49 54 55 46 47 46 45 37 35 34 39 34 37 26 25 26 23 24 25 28 25 26 31 34 34 33 31 30 29 31 32 33 34 30 26 33 35 33 31 28
46 44 49 50 51 50 54 55 60 63 62 61 65 64 65 61 56 54 47 49 44 39 37 29 26 27 27 30 28 29 32 35 38 39 37 36 34 34 37 41 39 38 35 32 31 38 39 36 38
36 39 47 55 50 44 39 50 62 74 72 63 63 67 69 69 82 82 74 88 82 60 48 39 33 32 29 28 35 37 37 42 45 44 44 41 37 38 42 44 50 49 49 43 39 34 36 35 39
22 25 28 38 39 38 32 37 46 37 21 26 32 44 54 53 67 78 82 80 82 72 53 45 42 36 36 32 52 44 45 45 53 53 51 44 34 35 40 49 53 62 62 57 50 41 32 35 32
11 13 14 13 14 14 12 12 11 11 13 12 11 11 13 16 33 56 67 69 52 48 45 46 45 40 35 43 56 80 60 68 78 77 67 60 42 44 44 47 51 62 63 66 64 56 38 32 36
15 15 17 16 16 15 12 12 12 16 14 15 14 12 11 9 9 14 31 40 44 36 36 44 45 45 42 36 55 71 90 91 95 88 79 80 66 55 53 45 46 57 67 66 66 68 62 31 25
17 17 18 20 19 17 15 14 15 20 16 16 17 18 15 15 12 9 8 8 13 31 37 43 50 41 32 30 37 39 65 82 96 96 97 88 80 58 63 52 49 54 60 69 68 66 63 63 55
14 18 14 20 20 19 17 14 16 16 14 13 13 17 27 38 22 14 11 9 7 10 55 53 46 44 48 25 21 23 33 61 67 94 92 94 99 94 75 66 62 68 60 56 63 65 61 62 61
19 32 25 26 29 23 20 17 18 20 18 16 19 26 57 75 34 14 12 11 9 8 30 63 60 53 46 46 36 22 20 26 75 55 84 86 95 97 98 74 64 72 67 49 52 52 50 52 58
25 27 29 30 44 29 23 17 18 28 19 25 32 93 94 88 43 15 15 14 16 32 43 60 68 61 56 48 40 36 29 28 24 51 48 78 80 100 94 85 74 81 80 60 54 63 39 46 42
30 31 29 28 32 49 40 19 23 36 29 54 98 98 86 75 32 10 19 39 32 26 23 32 56 57 62 58 50 40 35 30 25 21 36 41 56 74 99 86 83 95 87 62 60 61 51 53 53
32 33 33 32 44 48 30 22 30 38 68 100 89 87 76 68 61 48 43 37 37 36 56 51 40 50 57 62 66 57 42 34 28 18 14 16 29 63 47 57 95 95 88 60 44 50 50 47 60
33 36 41 38 39 31 27 13 15 13 58 95 76 62 64 63 59 55 54 56 68 66 66 68 69 64 57 54 50 56 62 59 47 27 19 15 18 30 62 80 96 97 98 58 57 38 43 62 58
32 59 50 36 28 30 25 30 19 37 75 84 87 77 65 59 62 94 99 90 71 73 77 74 66 65 62 56 51 52 51 50 57 55 44 29 18 18 17 60 84 75 99 84 55 34 33 52 49
32 38 45 43 32 34 6 91 85 76 82 69 51 54 63 82 92 100 94 93 92 88 84 79 68 57 58 56 47 50 53 55 55 54 52 49 28 23 15 15 25 96 98 95 98 81 30 52 81
17 19 26 38 46 47 32 99 90 85 63 50 45 45 58 60 70 67 62 66 70 64 55 53 56 60 54 58 57 47 48 56 56 56 53 51 47 32 21 14 18 17 90 98 89 91 66 64 95
26 55 46 36 48 64 80 91 100 73 64 53 58 69 69 68 84 83 77 70 60 53 49 43 44 49 50 48 52 53 48 47 58 67 54 48 48 47 39 25 20 18 23 63 87 94 88 96 97
10 48 78 83 68 68 75 77 92 75 61 78 88 98 100 96 80 76 74 47 21 19 13 11 11 22 22 26 28 33 37 44 41 42 62 54 48 46 45 41 33 27 40 29 61 84 96 98 98
39 42 90 100 82 78 55 74 79 54 63 72 80 79 82 79 67 66 40 14 11 13 10 8 6 5 4 4 4 4 5 6 7 9 18 44 46 38 36 45 51 41 28 31 38 56 85 96 99
73 90 74 97 93 72 53 94 98 91 100 100 100 100 95 84 72 80 62 73 69 58 51 40 39 40 48 40 20 19 18 10 10 6 4 5 17 24 15 20 24 26 27 26 26 52 73 88 89
98 82 87 94 94 81 62 68 83 90 76 85 86 100 100 100 74 72 85 73 77 81 77 83 86 89 88 90 83 58 26 23 31 31 28 35 34 21 9 8 11 17 21 21 20 26 64 90 94
82 82 98 95 71 55 53 50 53 44 51 97 100 93 76 73 76 85 85 97 100 98 100 100 100 100 100 98 75 58 52 52 45 73 90 87 95 99 84 40 14 7 12 19 20 18 24 94 97

GFSSGP_500_rhum_129.txt.gz
RH
20 23 21 19 15 12 10 10 9 9 9 8 13 12 17 24 29 29 29 20 16 18 20 18 17 15 14 13 13 11 9 10 12 15 14 15 17 17 18 19 20 20 20 19 15 12 9 6 10
17 22 26 22 17 13 13 13 12 11 12 10 9 10 13 19 30 35 32 20 15 17 16 15 17 18 16 14 14 13 12 11 11 13 13 14 17 19 22 23 23 22 18 16 19 16 13 12 9
20 19 28 27 21 15 17 13 16 16 13 13 11 13 14 22 26 25 28 33 24 20 19 16 16 20 20 17 14 15 14 13 12 12 14 16 18 20 23 25 23 19 19 18 16 18 18 18 14
23 23 27 31 27 20 17 15 14 15 20 18 16 14 14 16 22 24 23 25 26 31 30 28 20 18 20 22 19 17 17 17 16 16 16 17 18 21 23 24 25 26 21 18 18 18 19 24 21
26 26 27 33 33 28 22 20 17 15 16 14 14 13 14 15 20 20 22 26 30 33 31 29 25 20 19 22 25 22 19 19 20 20 20 21 21 22 24 26 26 25 24 21 20 20 21 27 25
32 32 32 39 38 33 29 25 22 21 20 19 18 17 20 24 28 31 31 30 29 30 33 33 31 30 25 21 24 25 23 22 21 22 22 22 22 23 25 27 27 26 24 22 22 22 22 26 32
34 36 38 44 47 39 35 32 30 28 28 25 25 25 30 30 31 27 25 25 27 33 30 31 31 30 32 26 21 22 31 26 26 25 25 25 26 27 29 30 30 29 27 24 24 26 24 26 39
24 33 39 52 56 46 43 44 43 41 40 39 41 44 44 42 44 41 42 37 35 38 43 42 39 37 34 36 31 26 23 28 29 29 28 30 30 32 32 33 33 32 30 30 27 30 27 30 40
13 25 37 47 56 59 55 53 55 55 56 54 56 54 53 53 48 52 56 52 51 46 42 46 49 57 52 41 40 38 33 29 29 28 29 33 38 36 35 35 34 36 35 32 31 29 30 27 31
9 24 45 44 47 57 57 56 59 62 63 68 58 50 49 43 48 55 56 52 50 54 50 45 71 61 63 69 54 46 41 38 34 33 34 34 34 34 34 38 40 39 39 36 37 34 32 32 30
8 13 19 37 45 43 53 60 59 63 80 70 52 53 51 58 56 36 27 20 23 24 21 24 27 56 77 76 98 93 72 59 48 39 37 37 37 36 35 44 45 44 47 49 51 46 38 34 39
7 7 12 21 24 31 40 46 47 47 44 41 43 45 34 21 24 19 16 15 10 9 9 9 14 22 71 68 82 78 94 80 65 50 43 42 41 41 49 52 53 49 51 56 58 59 49 36 40
7 8 10 14 15 17 18 18 17 18 17 15 14 14 13 12 12 12 13 12 12 12 12 11 10 17 59 69 63 57 58 68 84 83 89 91 66 58 63 60 59 55 60 59 64 66 63 51 33
15 9 13 20 18 20 19 15 16 18 17 17 18 16 16 16 17 16 16 15 14 14 13 12 11 10 13 21 32 36 49 54 56 65 86 89 95 94 84 90 74 61 61 67 71 69 68 55 41
18 25 29 27 25 27 32 35 36 34 29 26 27 30 31 31 30 25 17 16 16 17 16 16 14 13 12 12 11 24 35 47 52 53 82 99 100 98 98 95 94 94 76 82 79 79 72 70 64
15 17 16 17 21 24 23 24 24 23 24 23 21 19 21 24 29 34 28 17 18 17 20 22 25 25 18 14 13 18 28 39 47 51 49 68 83 100 91 97 98 96 94 96 91 90 81 80 78
18 18 21 22 22 22 22 25 28 30 32 33 31 28 27 28 28 26 22 20 17 16 20 20 22 25 25 23 24 14 18 32 35 42 46 48 46 71 82 96 80 96 95 95 95 96 94 80 85
19 24 20 22 30 30 30 30 33 34 32 29 27 26 26 27 28 25 21 19 15 13 11 9 11 13 16 17 19 25 24 21 34 40 41 43 42 39 42 50 90 93 96 96 96 96 95 90 87
28 28 25 27 30 28 34 36 36 34 31 31 32 34 28 25 24 20 17 15 12 10 9 10 8 9 16 16 21 29 28 26 29 43 40 42 44 40 42 36 44 87 84 97 97 97 88 94 99
33 30 31 31 33 32 35 35 33 32 34 36 41 49 51 39 29 25 21 15 11 10 11 13 15 16 12 13 17 24 36 33 26 27 38 60 55 45 38 42 34 63 76 96 96 98 96 94 94
36 36 37 35 36 36 37 37 35 34 33 29 29 29 29 26 21 17 15 15 18 18 16 16 19 30 38 31 29 30 30 36 38 34 26 30 56 60 48 36 40 37 26 76 92 96 94 97 95
37 44 42 40 37 34 34 30 28 25 22 20 20 19 17 16 14 14 14 15 17 28 47 50 46 30 24 24 25 20 21 25 39 26 30 35 38 56 63 47 32 32 35 48 76 91 98 97 96
42 41 40 39 39 36 31 26 21 19 16 13 11 11 10 13 21 38 50 54 58 59 54 44 34 40 37 40 43 40 34 24 33 39 45 29 34 48 64 62 41 28 26 34 56 75 100 97 96
48 46 44 38 32 29 22 19 15 13 12 11 13 19 31 55 72 74 70 61 51 43 39 38 38 42 47 46 49 44 36 31 31 30 29 50 45 38 59 71 64 42 29 30 31 47 65 70 90
46 40 34 30 23 19 17 14 12 10 10 12 24 28 33 40 46 50 44 36 33 32 37 46 48 49 46 24 11 14 23 32 34 33 29 32 49 58 53 66 72 71 57 34 29 22 39 63 67
33 25 20 20 17 15 14 13 12 15 18 38 53 58 59 53 45 43 53 63 64 61 56 37 17 15 10 8 7 5 4 4 4 22 33 37 41 47 55 65 62 66 68 65 43 33 25 25 46
24 23 24 41 28 29 16 15 14 15 30 49 60 67 61 56 56 60 68 73 68 42 15 14 17 18 32 34 31 20 7 3 3 11 28 29 43 52 49 54 63 58 62 64 65 55 46 34 24
25 29 37 56 73 50 15 16 19 21 51 71 63 61 56 57 53 40 29 25 23 20 20 30 50 64 81 86 73 62 56 55 27 6 4 8 27 39 52 45 46 56 60 60 58 57 58 45 40
20 18 32 74 69 92 54 21 37 55 71 62 58 40 29 28 28 25 28 32 48 61 62 85 98 96 91 73 78 62 65 77 82 75 30 7 4 6 11 32 46 42 45 52 59 60 60 59 54
22 23 27 64 48 74 73 23 61 81 68 64 41 24 34 38 34 42 50 71 78 80 100 100 99 100 86 87 95 89 84 69 83 79 72 45 26 12 6 5 6 9 20 37 45 48 51 57 58

GFSSGP_500_rhum_132.txt.gz
RH
21 19 17 18 21 19 16 14 12 11 10 8 9 11 15 18 22 26 28 29 26 26 22 16 16 17 18 18 17 15 13 12 11 12 14 16 16 15 18 19 20 18 17 16 15 18 19 17 12
23 22 20 19 22 23 19 16 14 12 11 11 9 9 12 15 16 16 23 26 28 26 29 25 21 21 21 20 19 18 15 14 13 13 14 16 17 18 19 20 20 19 18 13 14 16 18 20 18
25 24 22 20 23 26 22 19 16 15 13 12 13 12 13 16 18 20 27 30 32 38 32 27 26 26 24 22 20 20 20 17 15 15 16 19 19 19 21 21 21 22 21 17 17 15 15 19 22
24 26 25 24 24 25 25 22 19 18 16 15 14 18 18 20 20 26 33 36 37 34 33 31 29 29 29 24 20 19 20 22 19 18 18 19 20 20 21 22 24 23 22 22 18 18 19 20 21
18 24 28 27 27 26 28 28 24 21 19 17 16 17 16 17 22 26 36 37 33 32 32 32 32 32 32 32 29 25 19 20 23 21 21 21 23 23 23 23 24 24 24 22 22 18 20 22 26
15 20 29 32 32 30 34 34 32 28 25 23 22 23 24 23 25 28 30 27 30 34 37 34 33 34 34 34 32 29 22 19 25 25 24 22 24 25 25 26 26 27 27 26 24 22 21 23 25
13 11 30 36 39 36 37 42 41 37 34 33 32 31 32 32 32 32 30 26 26 32 36 36 32 34 37 35 35 34 32 26 21 24 28 27 27 28 31 31 30 30 31 30 27 25 23 24 25
14 6 16 36 47 44 42 43 46 47 48 51 51 50 46 45 44 42 40 41 46 52 52 50 48 49 50 55 48 43 49 42 33 26 25 24 24 25 29 30 32 30 33 34 31 29 28 26 27
16 10 11 20 34 47 45 48 52 56 58 57 54 54 53 54 52 42 40 45 46 50 59 60 62 62 62 63 72 69 63 57 56 41 32 29 28 26 27 28 27 28 33 36 36 33 34 34 31
15 16 8 15 28 43 58 62 66 66 65 54 44 42 40 43 40 47 48 52 60 57 55 52 59 61 54 56 79 84 78 74 71 68 58 42 35 34 34 31 30 30 34 37 38 36 36 40 37
12 15 8 8 16 37 51 57 60 57 56 51 48 44 36 38 38 36 36 45 32 14 19 24 24 32 45 50 37 49 68 82 88 83 78 81 73 53 44 43 40 39 42 41 39 38 42 43 44
10 12 9 7 9 13 21 33 37 40 40 42 41 36 34 24 18 19 20 15 13 13 14 11 10 11 11 11 12 33 66 66 78 76 80 78 82 85 88 69 51 42 46 47 40 37 40 43 52
8 9 8 9 9 10 12 16 17 18 17 17 17 16 16 15 15 16 15 15 15 16 15 15 15 13 13 12 11 16 43 52 58 62 77 84 86 97 99 95 85 78 61 49 45 44 46 49 50
10 11 11 10 10 17 20 18 26 30 31 31 30 31 31 31 31 27 27 26 28 31 31 24 17 18 17 14 12 14 34 39 46 46 45 50 78 87 90 95 98 95 95 91 73 50 46 52 52
10 12 12 15 17 19 21 20 19 22 23 23 24 25 26 29 31 26 24 24 24 24 26 28 26 20 18 20 17 13 12 19 19 18 24 37 47 58 70 98 95 94 96 91 91 91 72 70 60
9 9 12 13 14 16 18 20 21 22 21 20 19 19 25 28 30 31 31 31 31 30 30 28 26 22 18 18 22 20 16 13 14 14 20 21 31 41 45 60 84 97 88 97 88 84 93 92 93
14 11 13 18 17 17 22 22 18 20 23 26 26 26 26 30 30 28 28 29 31 32 32 30 25 21 20 20 21 22 24 23 16 14 14 20 24 28 40 44 39 77 91 98 98 98 93 91 95
25 14 12 12 15 20 28 26 24 25 25 26 26 27 28 28 27 25 24 23 23 25 27 29 28 24 21 18 16 15 16 22 25 26 22 16 18 26 24 34 38 22 53 78 82 96 82 96 95
35 34 32 28 32 31 31 29 28 27 27 28 29 29 30 30 30 29 25 22 21 20 18 17 16 15 14 12 11 9 8 6 6 8 15 27 23 16 24 29 37 32 18 35 51 82 98 78 95
34 32 33 31 32 29 30 28 26 27 30 32 37 39 39 37 34 31 27 23 19 17 15 14 12 12 10 10 9 8 9 9 8 8 10 18 14 12 15 19 31 46 37 22 35 46 51 94 95
32 31 32 29 32 34 32 26 31 33 33 36 41 40 36 31 27 24 20 18 17 15 13 12 10 8 8 7 7 9 12 19 31 34 25 19 26 30 20 17 22 44 64 44 33 41 39 92 97
32 41 34 34 34 33 35 25 28 32 32 33 32 28 22 18 16 13 11 10 9 8 7 7 9 15 23 23 25 31 37 40 36 30 29 30 26 30 37 26 19 30 38 68 57 42 42 45 66
44 48 48 46 44 39 37 37 22 27 28 27 23 19 16 14 12 10 10 9 10 11 13 26 41 50 51 47 45 49 46 34 25 21 18 16 25 22 24 24 23 28 36 33 52 61 43 44 37
46 46 48 49 46 33 34 38 20 26 26 22 18 17 15 13 12 14 19 22 23 22 18 30 43 38 32 27 25 21 21 27 27 23 20 22 33 33 26 26 27 20 24 32 33 50 60 46 38
49 52 51 47 46 43 38 34 28 27 22 19 19 21 17 13 18 29 33 35 32 25 27 31 38 47 44 42 37 30 27 26 23 18 11 8 23 31 29 27 27 27 31 29 28 29 60 51 41
56 56 54 48 42 37 34 29 24 22 20 18 21 24 24 29 33 36 45 49 47 48 46 47 47 34 13 7 6 5 6 8 11 6 5 4 5 19 23 27 25 23 26 42 33 26 38 63 43
58 52 44 38 33 29 29 25 23 19 18 18 27 34 39 41 46 47 46 37 32 23 15 12 11 8 7 10 31 41 59 73 93 66 34 7 4 3 4 27 29 32 31 49 52 27 28 66 54
60 47 39 34 33 26 24 20 17 13 17 31 65 72 57 56 55 44 24 11 8 9 11 14 28 55 74 68 57 58 63 86 99 92 70 60 12 4 11 26 27 46 40 46 60 56 34 57 77
53 45 36 27 26 33 20 18 13 19 45 78 85 71 53 53 34 19 18 17 16 27 53 78 100 99 87 65 46 44 74 100 100 99 97 96 76 26 7 4 14 39 52 53 62 62 65 68 69
38 36 32 26 24 20 18 13 17 45 81 91 75 50 37 37 23 34 55 39 35 72 87 100 100 100 99 62 49 64 97 99 100 100 100 96 95 78 32 14 10 8 12 22 33 46 53 56 61

GFSSGP_500_rhum_135.txt.gz
RH
18 20 22 23 21 20 20 19 17 15 12 11 10 10 11 15 13 15 15 16 20 23 24 24 26 19 18 17 16 16 16 16 15 12 12 14 14 15 14 16 17 19 20 18 12 11 12 18 22
16 18 21 23 23 21 22 20 19 17 15 13 12 12 12 13 12 12 15 19 24 27 32 35 30 24 23 23 21 17 14 13 16 16 14 14 15 15 16 17 18 19 20 21 17 13 11 12 15
15 17 19 21 24 23 25 24 22 20 18 15 15 16 17 16 15 16 20 25 31 33 29 34 34 29 27 27 28 26 20 17 15 17 18 16 17 19 20 19 19 19 20 22 20 17 15 14 14
16 17 18 20 24 25 27 28 27 24 22 20 19 20 21 21 21 22 27 31 36 38 39 40 33 30 28 29 30 29 26 24 22 17 18 19 19 20 21 21 21 21 23 24 25 20 18 20 17
17 17 17 18 21 26 28 31 34 30 26 24 23 23 27 31 32 33 32 36 41 41 40 34 32 32 32 32 31 32 33 30 26 22 17 19 21 20 20 21 22 22 23 26 27 24 20 19 20
17 17 18 14 19 28 31 30 33 36 34 31 30 31 34 35 32 31 32 35 34 32 31 31 28 29 31 31 29 33 36 36 31 28 24 20 21 30 28 20 21 21 22 25 29 26 24 23 20
16 17 16 14 10 22 30 32 35 39 42 43 42 43 45 45 44 42 43 41 38 34 31 34 36 38 38 41 42 42 44 50 56 36 31 28 33 30 26 23 20 26 26 25 26 27 28 27 25
13 15 16 17 11 11 20 30 37 45 50 50 52 57 59 52 52 48 48 48 46 44 46 48 47 44 45 48 48 48 58 56 52 62 73 39 36 49 38 23 24 23 17 19 22 24 26 28 26
12 12 15 17 16 11 16 29 36 41 45 48 51 51 46 43 45 48 48 48 51 52 53 55 59 57 57 58 58 56 70 77 74 64 57 82 55 38 40 36 29 26 23 24 24 25 25 27 26
13 11 12 16 12 9 20 32 40 39 41 50 51 44 46 48 51 52 54 51 50 52 54 56 53 51 53 53 54 50 55 63 66 73 68 73 74 59 53 54 57 49 43 31 32 29 25 27 22
12 9 11 14 15 10 7 9 22 36 45 39 39 38 42 44 43 36 23 24 33 34 34 32 18 16 22 30 40 38 36 39 30 33 43 67 76 79 83 73 70 56 49 48 43 41 32 28 26
12 8 9 11 12 10 8 9 13 16 14 19 20 22 20 19 19 22 28 22 21 21 16 15 16 17 17 13 10 13 14 11 14 21 33 36 56 75 75 69 79 82 85 74 61 46 45 41 35
8 8 8 9 10 11 10 11 13 12 13 17 29 31 30 28 27 25 24 26 28 30 29 27 22 21 23 28 20 14 12 13 12 12 28 44 47 51 64 71 69 69 69 78 84 83 80 64 45
8 8 9 11 12 12 13 14 18 21 22 25 26 25 25 26 26 26 26 24 25 29 31 28 25 28 30 29 28 26 19 16 14 12 13 36 48 52 50 49 73 75 74 78 78 95 100 95 63
23 10 11 12 12 12 14 15 16 18 19 19 21 21 22 22 20 19 18 18 22 23 26 28 30 30 30 33 32 29 25 22 19 15 13 13 27 34 40 37 36 93 49 88 67 87 96 95 94
34 20 14 14 11 11 13 18 20 19 19 22 22 19 17 20 23 24 25 24 22 24 27 27 27 28 29 32 36 35 30 25 22 24 20 15 13 12 14 21 28 31 39 98 82 60 97 97 85
44 28 26 26 16 13 13 13 14 15 21 27 26 24 22 22 23 22 22 22 22 25 26 26 26 26 26 27 31 35 35 32 28 25 26 26 21 16 13 12 13 20 24 39 35 62 52 95 96
44 37 41 39 24 22 18 18 21 26 26 24 26 26 26 26 26 26 25 25 25 24 24 24 25 24 24 24 25 26 28 30 27 23 20 19 22 20 20 16 13 12 14 22 31 34 37 43 96
37 32 31 32 33 28 31 26 24 21 24 27 27 28 30 30 31 31 29 28 28 30 30 29 26 23 21 19 17 16 15 14 14 14 14 13 11 10 9 12 18 18 13 13 28 42 36 38 46
32 32 36 33 31 23 22 22 22 23 25 28 31 35 37 36 34 33 33 33 32 30 28 25 21 18 16 14 12 11 10 10 9 9 9 8 8 8 8 8 8 8 10 14 17 29 49 39 33
32 32 30 22 22 21 16 14 17 22 26 29 33 36 37 36 36 35 33 31 27 22 18 15 13 12 11 10 9 8 7 7 6 6 6 5 5 5 5 5 6 6 6 6 10 20 22 29 38
30 32 25 23 22 20 19 16 16 22 30 36 40 38 36 33 31 28 26 22 18 15 13 12 10 10 8 7 6 5 5 5 8 15 33 38 49 39 24 12 6 5 6 5 9 9 15 21 21
35 33 32 32 30 24 22 25 16 17 23 34 35 35 33 31 27 23 19 17 16 14 12 10 8 8 9 10 12 13 18 21 24 31 31 25 20 37 42 34 32 25 15 10 10 14 17 18 31
40 39 40 38 37 28 31 35 17 26 31 35 35 32 28 24 22 20 19 16 13 12 10 8 11 13 13 13 17 21 22 24 28 33 36 30 23 20 21 31 27 22 20 18 17 12 11 16 19
48 49 49 44 42 40 39 36 28 33 34 33 30 25 23 21 19 17 15 13 12 13 16 20 28 31 28 28 27 25 14 6 5 5 7 10 11 14 25 22 21 19 20 21 21 20 12 14 10
55 54 57 58 52 45 41 36 36 38 38 34 27 22 18 15 14 14 19 32 38 40 38 37 30 18 11 6 4 5 4 5 9 38 59 74 73 76 48 9 10 7 11 19 24 20 12 16 17
62 65 66 65 60 56 47 46 43 41 41 28 17 15 14 15 20 30 46 48 44 36 18 9 8 7 6 5 6 15 42 48 45 51 59 67 84 79 69 37 13 5 6 14 15 25 26 21 31
71 70 68 68 64 58 56 52 45 35 22 18 16 16 19 30 53 62 56 34 23 16 12 10 13 38 60 73 78 61 38 38 47 61 96 96 97 99 83 50 8 4 4 6 17 31 31 28 27
75 76 80 77 70 57 44 42 30 22 17 18 21 29 47 59 55 38 24 28 26 41 34 44 89 100 95 89 77 55 42 48 90 99 100 98 98 100 100 57 11 5 26 31 31 38 44 42 46
88 82 82 72 59 49 38 34 25 17 23 29 53 52 59 64 31 21 46 53 73 91 89 99 100 100 100 92 81 71 59 94 96 100 100 100 85 73 94 69 30 13 8 6 16 30 46 54 64

GFSSGP_500_rhum_141.txt.gz
RH
15 13 10 8 10 11 45 17 20 22 22 18 15 13 13 17 16 47 33 16 15 16 18 21 22 23 15 12 15 18 20 20 19 16 14 13 12 11 10 10 11 13 13 14 13 13 14 12 10
13 10 8 8 11 54 51 17 19 23 23 21 18 15 16 14 16 16 16 18 20 22 22 26 24 22 24 20 20 20 21 19 21 24 21 17 16 15 14 12 11 12 15 15 16 14 15 16 13
7 8 7 10 12 50 58 16 18 23 26 25 22 20 18 20 20 22 24 25 27 29 29 30 29 28 24 25 27 24 22 24 24 24 25 27 22 22 29 20 16 14 15 16 18 19 18 15 14
7 8 8 11 38 15 15 14 19 23 27 28 27 26 26 27 30 30 32 34 37 36 38 38 37 32 27 25 24 23 22 24 23 23 22 27 32 33 28 42 29 21 18 17 17 20 21 20 18
6 7 8 12 25 14 15 16 18 26 30 32 34 32 31 32 29 29 37 36 37 40 44 38 32 31 29 27 27 29 31 33 31 28 28 34 42 44 35 43 40 45 34 28 26 26 28 24 20
7 7 8 47 62 10 13 15 18 27 38 40 42 30 36 32 33 33 35 37 40 36 34 35 36 38 38 39 40 40 43 44 44 42 38 37 40 54 62 29 31 32 42 49 42 29 36 40 30
7 6 9 32 76 12 14 16 17 32 45 39 44 41 38 41 40 40 40 38 38 41 47 50 50 51 53 52 51 49 48 46 46 49 51 50 53 55 64 70 39 35 43 54 52 31 29 43 35
7 7 8 10 30 13 15 16 18 18 23 51 53 44 41 50 50 51 52 55 58 59 58 58 58 57 57 55 54 51 49 49 53 54 56 57 60 65 65 66 70 94 46 40 57 44 30 34 41
6 8 14 26 11 15 14 16 18 22 21 29 53 47 48 56 59 61 61 58 55 54 54 55 55 55 53 50 52 55 54 54 52 45 41 41 49 72 75 69 68 85 96 70 47 49 46 44 48
7 8 48 10 13 15 13 15 15 18 18 22 43 51 55 57 54 52 55 54 50 43 35 30 29 30 34 32 31 35 40 39 29 23 18 16 22 35 69 93 83 85 61 80 90 68 63 68 66
10 10 10 11 14 11 11 13 13 12 11 10 14 39 37 39 32 23 22 22 24 26 23 23 22 21 21 22 22 22 20 17 16 15 13 12 11 10 12 24 35 54 79 92 84 88 96 94 94
17 19 17 12 12 10 11 12 12 11 12 12 12 13 17 20 23 25 28 26 20 16 16 16 16 15 14 14 14 14 16 17 19 17 15 14 12 12 12 12 11 12 25 50 81 95 90 93 96
30 27 18 11 11 8 9 10 11 10 12 13 13 14 15 18 21 23 23 23 24 24 21 19 20 19 18 19 20 18 18 18 15 16 19 24 22 17 19 24 21 16 15 14 34 46 74 91 94
31 26 12 12 11 10 10 14 14 12 12 13 15 17 19 19 18 18 19 19 20 21 22 21 20 19 19 20 21 21 21 20 20 20 22 23 26 28 24 24 26 26 24 20 16 27 76 55 80
24 13 13 20 29 29 22 22 19 16 13 13 15 15 18 19 20 19 19 18 21 24 23 22 21 21 21 21 20 20 20 20 20 21 22 22 24 24 25 28 27 27 26 28 24 17 14 18 85
15 14 19 31 25 35 31 24 26 22 20 18 16 15 14 15 15 15 16 21 20 18 17 16 16 15 15 15 17 21 23 25 25 25 24 22 22 22 23 24 24 26 29 27 27 26 20 16 14
20 18 18 27 29 41 41 28 23 29 29 26 24 22 22 22 23 22 19 17 15 13 11 10 10 10 11 13 16 20 24 26 27 28 28 28 29 26 24 23 21 21 22 26 28 27 23 22 22
34 46 44 44 47 41 43 39 21 24 24 22 21 19 16 15 14 13 14 14 14 14 13 12 11 11 14 18 22 23 25 26 25 26 26 26 27 25 23 21 20 20 19 18 20 21 25 25 24
60 60 65 70 58 43 34 29 31 15 17 17 16 15 14 14 15 17 18 18 16 14 14 13 12 14 18 21 24 25 25 26 26 26 24 23 21 19 16 15 13 12 11 12 13 15 16 18 22
70 71 62 49 49 32 34 27 25 20 13 18 18 20 21 21 21 21 20 18 17 16 16 16 19 23 26 28 28 27 27 26 25 24 23 22 21 20 19 18 17 14 11 9 9 9 9 11 12
66 64 52 40 35 29 29 24 28 23 18 21 23 24 25 26 26 24 21 20 20 21 24 28 31 32 31 30 30 29 28 26 24 20 17 14 13 12 12 12 10 9 9 10 8 7 7 7 7
65 68 51 36 31 29 25 23 34 34 26 26 27 31 32 34 32 28 25 24 26 32 37 38 36 32 27 22 17 14 12 10 8 7 7 6 6 6 6 6 6 6 5 5 5 5 5 5 5
76 60 50 38 32 28 28 29 46 51 37 31 31 40 39 37 34 34 36 39 40 39 34 26 21 17 14 11 9 7 7 7 6 7 11 11 11 14 11 10 9 11 13 16 18 16 8 5 5
66 50 33 32 31 29 33 38 44 95 42 43 46 45 42 38 38 40 42 42 36 27 21 16 13 11 9 9 10 14 19 26 26 26 24 23 19 15 21 19 18 17 13 11 11 16 23 20 12
40 34 31 31 34 38 52 46 51 71 48 51 62 53 46 44 44 43 40 32 25 18 12 11 14 18 26 36 36 30 19 7 8 8 6 5 4 3 4 4 4 4 4 4 4 4 4 15 25
36 35 37 41 58 65 73 48 80 58 61 60 63 59 51 46 41 36 30 23 15 12 12 24 38 41 37 23 11 7 6 5 4 4 6 8 16 25 26 30 32 36 40 43 42 51 53 26 14
41 43 48 49 47 49 47 52 82 60 56 62 62 53 48 43 38 30 22 15 12 16 40 48 33 19 26 48 36 16 14 36 44 35 36 37 47 65 64 64 70 82 96 96 92 77 70 78 64
47 45 47 51 54 65 66 97 100 87 70 65 55 45 42 38 29 25 15 13 19 45 44 23 47 55 51 69 91 81 78 65 60 48 48 70 100 100 100 97 84 75 94 97 94 96 97 94 73
54 58 65 78 83 88 83 67 67 58 60 66 58 51 39 31 29 19 14 13 37 45 18 38 51 52 51 85 95 94 95 86 80 81 84 100 99 100 100 98 87 100 100 85 88 35 37 53 58
78 84 94 94 96 96 100 52 64 60 54 65 51 46 39 34 27 20 12 35 45 16 25 41 61 65 78 96 100 100 100 100 95 95 100 100 100 98 97 100 65 38 46 58 69 60 27 22 25

GFSSGP_500_rhum_144.txt.gz
RH
10 11 12 9 7 8 38 55 36 28 15 22 21 18 14 21 78 49 50 47 21 17 19 22 24 26 24 24 21 19 20 20 20 23 24 23 20 17 16 14 12 11 12 17 12 14 13 12 10
7 8 8 7 8 21 61 56 46 29 20 25 25 19 16 15 32 40 18 17 17 22 25 28 26 26 24 23 22 24 24 23 22 21 24 25 25 25 22 23 24 18 15 17 15 12 13 12 12
6 6 7 8 9 35 72 57 36 17 19 24 28 25 22 18 18 18 17 20 23 31 33 34 28 26 24 22 20 21 21 20 20 21 21 23 28 42 40 47 40 42 29 20 16 15 12 12 13
6 6 7 9 13 74 51 16 14 19 17 26 23 29 26 24 21 21 25 30 34 36 35 35 32 27 23 21 21 22 23 27 28 31 32 28 30 33 47 48 42 41 42 38 30 25 23 20 15
8 7 7 8 17 72 16 14 19 17 16 30 26 23 28 28 28 34 34 31 31 35 30 29 28 25 26 27 31 34 34 37 39 41 40 40 39 38 40 50 64 57 38 41 42 38 38 25 29
7 7 7 14 78 83 33 20 16 17 19 30 31 20 25 35 36 32 32 32 32 32 31 32 32 35 41 45 48 48 46 44 43 44 46 46 47 49 52 51 53 68 64 48 47 50 54 45 27
8 7 7 17 95 94 41 22 16 18 19 28 22 22 27 39 41 40 38 38 38 40 44 48 53 53 53 53 51 49 50 49 46 44 46 52 53 51 58 63 68 67 69 65 69 40 49 53 41
7 6 7 11 52 91 13 18 16 21 23 22 33 20 29 52 49 48 49 51 55 59 61 58 54 52 51 52 51 48 44 44 42 42 50 53 47 46 49 56 75 64 70 71 75 75 40 49 54
6 6 8 44 80 46 8 17 17 19 20 27 39 22 21 40 51 52 57 62 64 60 54 50 49 47 43 40 38 37 35 33 32 33 35 33 26 20 26 48 74 92 88 87 80 87 88 72 58
6 8 24 30 72 14 10 17 16 18 17 18 19 19 26 36 48 55 57 54 46 44 44 43 37 34 31 27 24 24 24 24 22 21 20 20 17 15 14 15 22 46 47 55 73 88 85 71 76
12 10 9 10 12 13 12 12 14 18 16 18 18 31 18 16 28 33 29 24 21 21 22 22 21 21 21 19 17 16 15 15 15 14 14 14 15 16 16 20 16 21 36 42 51 47 38 93 93
30 18 16 15 14 16 12 13 11 11 12 12 12 12 15 14 17 20 19 20 25 27 27 25 24 22 19 18 17 17 17 16 16 14 13 14 15 14 14 14 18 20 20 22 32 38 28 75 88
36 26 21 21 17 11 10 10 10 10 11 10 11 12 13 14 15 16 19 21 20 18 19 20 21 22 21 19 17 16 15 14 13 14 16 18 19 19 19 17 16 18 23 25 22 24 24 40 49
41 37 30 29 20 9 9 8 11 14 14 12 11 12 13 15 16 18 18 19 20 21 20 20 19 18 16 16 14 14 13 13 12 10 11 12 12 14 14 16 18 20 20 22 28 27 25 26 27
48 44 38 30 14 10 10 17 28 24 19 17 14 13 13 14 14 16 17 16 17 18 19 18 17 15 14 12 11 10 10 10 9 8 9 8 8 14 12 14 14 15 15 17 20 24 26 29 28
49 45 33 15 12 13 20 26 32 31 26 22 22 24 23 21 19 18 20 20 19 17 13 11 11 11 11 12 12 12 11 11 11 11 12 10 10 13 14 15 16 17 15 15 16 20 20 20 28
49 26 14 15 16 20 21 30 38 34 28 26 28 32 28 23 21 21 18 14 12 11 12 13 15 15 13 11 10 9 8 9 11 13 15 16 17 18 17 18 18 18 18 18 19 21 20 20 19
27 27 16 45 32 35 42 38 46 40 32 23 25 21 21 16 18 15 13 13 16 18 18 18 16 14 12 11 10 10 11 12 14 15 16 16 18 21 20 20 21 21 23 23 23 22 23 21 21
34 33 37 36 49 51 52 60 51 38 27 23 21 17 16 15 15 15 16 18 21 21 21 20 18 17 16 14 13 15 18 21 23 25 25 26 27 23 23 23 23 22 20 23 23 21 20 16 15
38 42 51 63 80 72 53 57 56 48 28 22 19 17 15 16 19 22 22 24 25 26 26 25 22 19 18 18 17 18 21 24 26 27 25 23 24 23 22 22 24 23 23 21 19 21 20 17 15
62 67 71 75 84 66 58 55 58 50 34 25 22 19 20 24 24 26 28 28 29 30 28 26 24 23 23 23 26 29 27 23 18 13 10 9 9 10 10 9 10 12 12 14 15 16 16 15 16
82 88 83 69 66 67 65 53 56 51 40 27 23 25 25 30 31 32 33 33 32 33 33 32 29 27 28 27 24 18 13 9 7 6 6 7 8 9 8 6 5 5 5 6 6 7 8 8 9
72 76 79 86 86 74 65 50 45 59 38 26 29 28 29 43 40 37 40 41 38 38 35 33 31 28 24 18 12 8 7 8 11 21 26 27 25 22 24 24 20 14 10 8 7 7 6 6 6
72 64 70 70 90 70 60 51 37 46 70 49 27 26 39 52 44 43 45 45 40 35 31 30 26 19 13 11 9 24 28 22 15 9 6 5 3 4 5 6 10 8 8 18 21 19 14 12 10
68 63 57 67 88 67 57 41 69 67 79 81 64 63 43 48 46 48 47 42 34 31 28 21 15 14 11 17 32 19 17 12 11 7 6 6 5 4 5 8 9 7 5 4 6 12 17 16 13
63 62 60 68 65 53 80 93 89 84 61 70 88 77 62 59 58 52 43 38 31 26 20 17 16 11 19 34 21 29 38 56 69 42 25 29 17 19 24 27 33 35 29 27 21 19 16 9 13
53 48 52 52 46 39 37 60 91 58 54 64 86 100 83 67 54 51 40 31 26 20 21 19 12 24 28 13 37 35 56 75 76 78 65 50 44 42 55 80 89 95 99 99 99 87 81 73 47
44 43 43 44 42 44 42 49 77 90 81 71 84 88 89 59 39 41 34 29 19 23 24 12 25 20 13 33 41 60 66 78 86 83 74 79 77 84 98 100 100 97 92 99 100 98 97 100 100
58 56 54 53 51 49 46 47 66 82 97 99 100 100 82 53 38 37 33 23 25 30 16 21 18 18 30 44 61 64 58 80 100 100 98 100 100 100 100 100 100 69 37 39 58 99 100 38 35
72 67 56 54 54 56 69 71 93 88 89 98 81 71 64 43 32 38 39 26 30 22 17 24 26 32 42 53 68 54 74 100 100 100 100 100 100 100 100 100 100 98 90 68 40 39 55 87 82

GFSSGP_500_rhum_147.txt.gz
RH
8 9 9 9 9 12 38 47 32 35 36 34 20 20 21 18 16 17 72 98 59 19 22 25 24 26 23 23 23 20 20 21 22 23 23 25 26 25 22 21 22 22 22 15 14 15 12 11 12
6 6 7 7 9 20 31 37 36 22 40 24 12 16 18 21 19 16 24 96 58 19 22 29 29 29 25 23 22 20 19 21 22 21 22 24 26 26 26 35 39 38 40 41 30 18 15 12 9
7 6 6 8 12 21 59 67 55 38 44 26 10 12 15 23 23 17 30 36 25 26 28 33 32 29 24 22 21 20 20 22 24 25 26 26 27 29 38 40 49 45 44 40 48 36 24 20 17
10 8 8 8 10 15 29 26 29 56 48 30 12 14 16 24 25 22 20 22 25 30 35 35 31 26 23 23 22 24 28 32 32 34 37 37 38 38 39 40 47 54 61 60 53 42 43 35 30
11 9 8 8 16 30 47 30 34 33 17 13 14 13 18 27 30 29 27 27 34 35 35 32 28 28 29 30 33 34 37 39 40 40 38 38 41 46 46 46 44 49 52 60 62 56 45 41 42
13 11 8 8 12 27 67 61 71 60 17 9 11 13 18 27 42 38 33 32 32 30 31 33 36 40 45 46 46 43 43 43 45 45 40 39 44 45 50 55 57 55 57 62 64 54 56 52 43
13 11 8 7 8 35 97 83 82 76 24 9 9 16 22 32 39 41 39 38 40 41 44 47 51 51 50 48 48 46 47 44 43 41 39 37 41 49 49 48 53 49 60 62 64 63 56 62 46
12 10 8 10 18 19 21 54 42 52 27 11 15 16 24 25 27 39 46 51 53 55 57 56 50 47 49 45 44 41 39 36 34 32 30 30 30 29 27 23 27 21 44 57 61 71 69 68 76
8 6 7 10 12 11 11 20 13 35 24 17 16 18 19 18 33 58 61 60 60 59 52 46 45 44 47 40 35 31 27 24 21 20 21 19 19 19 20 20 19 18 18 17 29 51 67 54 79
10 8 7 8 8 10 13 11 18 22 28 19 16 18 17 23 31 48 58 54 52 47 41 33 30 28 24 19 17 17 18 17 16 16 15 15 15 14 15 14 15 17 16 19 18 19 28 37 59
30 27 15 12 10 10 24 23 20 15 14 16 20 19 18 16 11 13 31 48 43 27 18 19 23 25 25 24 23 21 19 18 17 17 17 16 16 16 16 15 14 15 14 13 15 17 17 21 42
18 29 30 30 13 13 13 18 20 17 13 13 12 14 14 13 14 14 13 14 20 19 23 24 22 20 19 20 21 20 17 13 11 10 10 9 8 8 9 11 14 15 15 16 17 16 16 19 32
33 39 32 38 21 18 23 23 16 13 11 11 11 13 12 12 13 14 14 15 17 19 20 20 21 21 20 17 13 10 10 10 9 9 8 8 7 7 6 6 6 8 9 9 10 12 16 19 23
37 42 40 46 33 20 16 17 18 12 9 9 13 17 17 15 12 14 15 18 18 19 19 18 18 16 13 11 10 10 11 11 11 11 11 10 9 8 8 7 7 6 6 6 7 10 12 10 15
37 43 44 46 47 34 23 20 13 9 11 22 24 22 20 19 18 17 16 16 17 18 19 18 16 12 12 12 12 12 13 14 13 11 10 8 6 6 7 8 9 9 9 8 7 7 10 14 11
44 36 42 50 45 40 28 17 14 13 27 31 31 30 25 26 28 26 22 21 18 14 12 10 12 12 13 14 15 17 16 14 12 10 8 6 6 6 7 8 10 11 12 13 11 10 8 7 12
44 48 52 46 35 25 18 15 13 23 31 38 41 35 29 26 28 26 18 15 12 11 10 11 14 18 20 20 18 16 14 13 12 10 10 10 9 10 10 10 11 12 12 14 16 16 14 12 10
54 46 47 39 24 20 19 17 22 28 46 54 47 40 35 29 25 19 16 13 12 12 12 16 20 21 22 21 20 18 16 16 14 13 13 13 12 11 11 11 12 14 17 16 16 20 20 17 15
55 44 41 27 28 29 25 31 42 52 59 54 50 44 33 31 28 24 19 14 14 18 22 22 23 24 25 24 21 21 22 20 18 18 16 14 14 14 14 15 15 18 21 22 22 23 25 23 19
56 49 31 36 38 38 44 56 67 76 76 64 45 37 32 30 26 21 19 18 24 25 27 28 29 30 29 26 24 22 20 18 16 15 15 15 13 11 8 7 7 8 11 13 15 19 20 23 25
58 42 32 33 52 48 63 68 76 82 58 50 47 43 37 36 32 24 20 26 30 33 33 34 33 32 31 28 26 22 19 18 16 13 9 5 5 8 10 10 8 7 6 6 8 11 16 20 24
75 82 76 64 69 76 93 79 78 77 68 56 47 40 38 38 30 23 28 35 38 41 45 42 36 35 32 27 22 19 17 14 9 5 4 10 16 13 11 14 18 23 23 21 14 6 6 8 14
82 95 96 95 90 82 83 95 59 87 85 73 58 48 43 38 25 31 36 34 40 46 50 46 40 34 27 22 19 17 9 4 4 13 14 8 8 7 4 4 3 4 8 15 23 26 23 12 6
84 89 90 90 94 78 70 94 51 72 77 69 59 53 41 33 47 41 41 41 52 57 56 46 36 28 23 19 13 6 4 15 16 16 24 40 56 16 4 4 3 4 4 4 4 7 15 18 18
88 92 95 98 92 61 73 78 64 58 62 60 53 42 42 71 56 47 51 55 68 61 53 40 30 23 18 10 7 7 16 13 20 29 40 50 71 65 7 8 9 14 14 15 20 15 9 7 8
89 93 100 100 89 67 66 64 74 64 58 58 62 53 56 67 58 54 65 86 69 62 46 33 24 18 9 12 10 16 15 22 32 42 40 56 68 73 39 28 32 48 64 81 80 71 51 22 16
98 91 99 96 92 79 65 66 80 79 64 57 74 82 74 74 64 69 88 92 76 55 36 25 20 14 20 16 14 14 31 31 45 37 45 60 72 100 83 85 100 99 100 100 98 94 86 95 68
89 94 97 94 85 69 59 60 68 64 73 99 93 90 93 84 74 79 100 78 54 37 27 20 16 24 22 14 16 34 31 49 38 38 89 90 91 97 100 100 100 100 85 48 41 59 82 86 95
89 100 97 99 86 57 50 52 52 56 64 69 71 82 93 91 78 70 66 49 32 25 20 18 25 22 20 19 36 53 38 53 49 77 100 100 100 100 100 100 100 100 100 96 78 48 63 86 51
96 100 100 96 82 79 74 75 81 81 72 73 86 99 94 75 75 74 54 33 29 23 20 24 24 20 21 27 53 58 59 75 100 98 100 100 100 100 100 100 100 100 100 100 100 100 74 37 42

GFSSGP_500_rhum_150.txt.gz
RH
5 6 7 8 11 15 8 7 6 9 16 29 41 41 31 24 23 27 60 58 96 92 53 22 30 28 26 24 24 23 23 22 22 24 25 24 24 24 24 22 21 25 29 30 31 37 19 16 14
6 6 6 6 9 8 12 8 7 8 13 31 36 30 17 17 21 26 60 80 100 95 74 40 34 34 31 27 24 24 26 24 23 24 25 23 22 23 24 24 33 36 42 38 41 36 42 30 17
10 10 9 7 8 8 8 7 7 9 11 12 19 30 18 14 18 25 29 61 93 89 58 53 44 34 30 28 26 26 26 26 28 30 30 30 35 33 32 33 33 34 37 44 50 52 44 42 42
13 12 10 8 9 12 11 9 9 10 13 17 21 26 20 14 18 25 26 36 65 66 48 45 38 37 36 31 31 32 33 37 40 40 39 40 39 40 40 38 40 41 39 39 45 61 69 58 42
15 14 13 9 8 8 10 10 9 10 18 19 16 14 13 14 19 25 28 27 28 30 38 38 38 36 34 34 37 41 42 43 43 42 39 38 38 40 42 42 40 42 43 45 52 53 66 74 65
15 15 14 11 11 9 9 9 9 11 16 26 18 11 12 17 22 28 36 36 34 33 34 36 36 38 42 45 46 47 45 42 40 41 41 37 35 37 41 44 46 45 47 44 48 53 61 65 69
15 15 13 11 8 8 12 11 9 11 10 12 14 12 13 17 20 25 33 47 47 42 40 42 46 49 48 48 50 45 42 38 38 34 32 31 30 30 30 29 32 32 35 32 30 40 54 65 76
14 13 10 8 8 9 8 9 10 9 12 24 24 16 14 18 22 25 30 39 41 42 46 49 51 49 47 47 45 42 37 33 28 23 20 18 18 19 19 18 18 19 19 18 17 18 21 43 66
13 10 8 7 7 7 7 8 9 9 11 16 20 19 18 18 20 23 28 33 36 38 40 42 44 46 41 34 36 28 20 18 19 18 18 17 16 16 15 14 14 14 14 13 13 14 15 15 30
10 7 7 7 8 10 8 8 8 11 13 14 16 14 17 18 19 20 21 22 27 27 29 35 40 28 20 20 23 24 22 22 22 21 17 16 15 15 15 12 11 13 14 15 14 14 15 16 36
12 21 24 27 27 27 25 22 16 12 14 29 41 16 17 16 17 14 20 24 22 20 26 24 19 22 24 23 21 20 21 20 19 18 13 11 10 10 9 9 8 8 8 7 8 8 10 14 16
16 27 23 29 27 29 29 25 19 14 16 21 28 20 14 14 14 13 13 15 16 20 18 17 20 21 20 20 21 21 20 18 14 9 8 9 10 10 10 9 9 8 8 7 7 6 6 6 8
14 29 27 33 46 42 40 34 22 17 17 21 14 13 11 12 13 12 12 13 14 15 16 17 19 20 20 20 18 18 15 12 10 10 11 11 12 11 10 10 8 8 6 6 6 6 6 6 6
24 32 38 40 48 52 46 35 30 26 23 16 11 9 9 14 20 18 14 13 13 14 15 16 16 17 18 18 14 10 11 13 13 13 13 14 14 12 11 10 8 6 6 6 5 6 6 6 6
36 42 44 43 48 55 48 42 37 28 22 16 11 9 15 24 27 22 19 20 20 20 20 22 23 20 14 10 10 13 15 18 19 18 16 14 13 13 12 10 9 8 7 6 6 5 4 5 7
44 40 40 56 52 52 49 41 37 29 23 14 10 17 29 36 35 30 28 27 28 27 23 19 16 13 12 11 12 14 18 20 19 17 16 15 13 12 12 10 9 10 9 9 8 8 6 4 4
44 46 44 50 46 47 43 40 38 32 23 14 14 25 34 42 42 36 33 31 28 22 19 17 15 14 13 14 18 21 22 22 23 22 19 17 16 16 15 13 12 11 10 10 8 8 8 7 6
56 50 44 46 45 37 35 35 33 28 18 14 16 22 49 60 55 49 45 39 28 22 20 19 17 15 20 24 25 27 27 27 26 24 24 24 23 20 17 13 11 8 6 5 8 9 8 8 9
57 49 47 47 44 44 42 34 26 20 17 20 27 37 53 60 57 50 49 44 31 25 23 22 20 23 26 30 33 34 34 33 31 29 26 23 19 14 10 7 6 5 5 6 7 7 6 7 9
57 51 57 56 51 43 34 31 32 28 30 41 47 53 58 55 57 53 49 44 37 32 28 20 22 28 34 36 37 38 37 34 31 26 21 15 10 8 7 6 6 6 6 5 5 6 5 5 6
67 61 68 56 45 38 36 37 40 44 50 52 50 51 60 71 69 61 52 45 40 35 26 25 32 37 39 44 43 40 37 32 26 20 14 10 8 7 6 8 10 8 8 8 8 10 15 18 15
64 71 65 44 38 38 48 39 45 52 61 61 50 49 56 57 74 67 59 52 38 31 32 34 40 45 49 49 44 38 33 26 20 14 10 7 6 7 8 18 28 18 12 6 7 5 9 16 24
82 85 77 74 49 48 56 62 54 67 84 84 68 50 41 49 66 58 52 43 49 46 40 45 54 55 50 45 41 37 28 21 14 9 6 7 8 8 22 29 25 50 40 5 4 3 3 4 10
92 99 93 88 91 88 95 96 41 76 84 78 57 51 49 51 60 58 50 55 60 51 53 61 58 54 49 44 40 30 20 12 8 6 9 11 13 22 32 42 59 60 28 9 8 10 8 6 5
75 81 95 97 95 73 89 98 58 64 74 63 59 58 56 57 58 54 57 64 62 62 66 61 61 56 56 45 33 20 11 7 6 11 14 20 26 40 63 69 70 62 39 37 54 69 73 66 49
87 84 95 88 81 85 95 83 64 60 68 64 63 63 68 70 76 88 80 89 84 74 68 76 68 66 52 34 19 10 7 8 11 19 17 23 31 46 71 95 100 100 97 95 95 97 88 96 98
94 88 98 100 97 94 85 75 60 64 67 72 71 80 97 100 100 100 89 87 92 86 91 86 77 56 32 18 8 8 10 15 25 24 29 26 38 51 60 85 96 100 100 96 74 48 46 88 100
98 99 99 95 94 92 67 77 85 81 80 81 90 100 100 98 100 100 97 99 100 100 92 80 53 33 16 7 8 14 16 32 41 38 34 61 88 87 73 88 97 98 100 100 100 96 55 98 100
100 97 94 98 100 97 95 90 95 96 94 94 97 100 100 98 87 87 100 100 100 97 74 51 32 13 9 11 14 15 25 36 51 56 76 93 82 86 95 99 98 100 100 100 100 100 99 52 46
96 99 100 97 93 98 96 87 87 88 79 85 94 88 82 83 93 100 99 99 82 69 52 31 12 12 14 14 19 30 37 52 64 74 96 87 76 83 87 87 97 98 98 100 100 100 100 100 55

GFSSGP_500_rhum_153.txt.gz
RH
5 5 5 6 7 6 6 6 6 9 12 20 26 27 33 40 46 50 55 65 49 73 83 79 24 23 26 23 21 23 28 28 29 29 27 25 24 22 21 21 22 22 26 34 44 43 43 39 39
8 8 8 7 8 8 8 8 7 9 14 23 30 35 41 49 56 63 38 36 47 71 92 88 66 30 24 24 28 27 29 30 30 28 28 28 27 26 26 26 25 27 31 38 41 47 47 46 43
11 11 11 11 11 10 10 9 8 8 9 12 28 45 57 44 44 58 42 31 31 39 55 69 46 36 43 33 32 31 30 30 31 33 37 39 39 38 38 38 36 37 37 39 40 41 45 56 61
14 14 13 12 12 12 11 11 10 9 9 10 16 24 41 43 27 21 23 30 58 60 72 50 52 56 43 37 36 36 36 38 43 48 47 44 45 44 44 42 40 40 43 46 43 42 43 48 53
16 15 15 15 14 13 12 12 12 11 10 10 15 23 24 23 24 17 23 33 45 61 50 38 41 41 43 41 41 43 49 55 54 49 45 44 42 41 41 39 39 40 44 45 48 50 49 53 49
16 16 15 15 14 14 13 13 12 10 10 9 13 20 30 36 25 18 23 32 46 57 51 51 50 46 44 45 49 54 60 56 48 43 42 40 37 36 35 33 32 35 40 41 41 45 41 47 54
16 15 14 15 14 14 13 12 11 10 10 10 12 17 42 37 26 24 34 46 57 60 62 54 49 49 52 55 58 60 57 51 42 35 30 27 24 23 21 21 21 21 22 22 22 22 19 20 26
14 16 15 15 13 12 12 12 10 9 9 9 11 15 29 37 23 24 34 44 33 34 41 46 50 52 54 57 61 59 52 45 29 22 21 20 18 18 17 17 17 16 16 16 15 14 14 14 15
14 14 14 14 12 10 10 9 8 8 9 8 11 18 21 28 25 21 18 23 25 26 33 38 41 46 51 52 41 27 27 25 24 23 23 22 21 20 18 16 15 13 13 13 14 15 17 18 18
14 13 11 10 8 8 7 9 12 15 21 20 14 20 30 24 19 18 18 18 18 17 21 31 34 36 37 27 21 24 25 23 21 20 21 21 22 19 14 12 11 11 10 10 9 8 8 8 9
13 10 10 10 13 17 23 26 26 25 24 19 17 18 23 35 23 15 15 16 15 14 14 17 20 22 21 20 22 21 21 21 21 21 20 18 13 10 9 10 10 10 10 9 9 9 8 8 7
10 10 10 20 27 25 27 32 32 31 28 23 17 18 25 40 22 13 12 14 14 14 14 15 16 17 19 20 20 21 21 20 18 16 11 10 10 10 11 11 11 10 9 8 8 8 8 6 6
8 10 10 19 33 28 24 29 39 42 39 28 20 22 30 21 13 13 12 12 13 12 13 15 16 16 17 18 18 17 18 17 12 10 11 14 15 15 15 14 12 11 10 10 10 8 7 6 7
8 12 18 23 27 29 37 42 41 38 37 34 27 25 22 14 10 10 10 14 17 18 15 14 14 14 15 16 19 20 14 10 10 10 12 15 18 19 19 17 15 14 13 12 12 11 9 7 7
9 23 31 34 43 48 48 41 40 42 38 38 38 31 21 13 9 10 18 20 19 18 20 25 28 29 28 25 19 14 12 11 10 11 14 20 21 20 19 19 18 16 14 13 12 11 10 8 8
14 27 38 49 49 47 44 39 44 42 39 39 37 32 23 12 11 26 38 41 36 33 31 29 30 27 23 21 18 16 14 14 17 20 22 21 22 23 23 21 20 19 18 18 17 16 15 13 12
14 26 46 52 43 38 37 38 42 41 40 42 38 34 25 13 19 30 36 55 55 52 47 42 32 27 25 22 19 18 18 18 21 23 24 27 28 27 26 24 22 22 23 22 20 18 17 15 13
15 30 41 46 45 37 33 34 44 40 38 39 35 29 19 15 19 31 70 68 61 55 48 44 41 37 33 28 25 23 20 19 21 23 24 27 28 27 25 24 22 21 19 17 15 14 12 10 8
16 30 36 50 50 41 37 37 50 46 41 32 29 20 17 19 41 67 67 62 58 58 56 52 47 41 37 34 28 23 23 26 28 29 31 32 29 25 23 21 18 16 14 11 9 6 5 5 5
23 29 38 51 55 48 46 43 46 45 40 31 25 24 36 56 67 71 71 66 67 67 67 58 49 44 40 32 32 35 37 37 37 37 33 28 25 23 20 16 12 8 6 5 6 8 10 12 9
38 42 58 60 63 55 48 44 46 42 35 32 34 42 53 67 76 72 65 64 59 63 60 57 53 45 35 34 39 41 43 41 38 35 34 31 27 21 16 9 6 5 6 9 26 31 44 41 27
53 67 69 71 70 58 50 35 34 34 35 37 41 48 62 78 77 83 74 70 69 63 62 57 48 44 44 53 53 53 48 44 44 43 34 26 19 13 8 6 8 6 11 30 16 19 37 41 23
57 86 82 82 82 75 57 44 27 39 36 40 48 67 79 81 86 78 73 72 68 64 63 58 58 64 68 66 59 52 49 50 46 36 26 17 10 6 6 10 16 18 37 29 15 12 14 14 10
64 76 77 81 84 62 52 53 31 41 49 57 61 70 85 95 82 68 71 72 66 66 64 69 65 74 76 65 56 55 57 50 37 25 16 10 6 8 10 16 31 42 64 76 72 68 63 55 40
90 91 94 92 81 47 66 70 40 50 58 72 83 83 95 90 73 67 72 73 72 66 67 74 87 84 76 59 68 67 55 40 25 14 9 6 10 17 19 20 41 60 83 92 90 89 73 62 75
98 98 95 99 91 80 91 65 51 54 60 65 66 76 75 70 69 74 77 83 91 80 77 87 89 88 68 80 71 57 42 24 13 8 6 13 24 27 23 35 46 58 80 86 89 89 90 60 46
89 92 97 99 95 86 76 63 61 59 62 64 69 70 68 69 71 74 89 100 100 98 91 96 83 70 86 74 60 42 25 12 8 7 14 35 40 39 45 60 69 64 76 90 92 97 96 87 59
93 100 100 97 94 89 66 67 63 64 76 78 76 71 72 75 75 85 95 100 96 99 100 78 84 83 75 61 39 19 11 9 8 21 27 49 54 60 60 76 75 80 87 93 91 94 92 98 59
98 96 97 98 98 99 96 81 71 76 86 96 90 94 93 90 80 94 100 100 99 91 92 93 78 80 58 37 14 10 10 8 20 31 55 58 61 68 63 74 39 29 65 88 93 90 91 98 83
97 86 95 98 97 97 97 88 82 75 77 89 96 86 80 81 87 89 99 100 100 94 91 82 80 58 38 15 11 12 9 17 34 46 72 76 71 46 34 30 18 13 12 54 90 95 98 99 100